Wetterdaten: Sonntag, 28.04.2013
Datum Zeit Temp. Aussen +5cm Feuchte Auss Luftdruck Regen Sonnenschein Regendauer UV Solar Windben
28.04.2013 00:00 6,3 C 5,1 C 79 % 1014,4 hPa 0,0 l/m 0 min 0 min 0,0 UV-I 0 W/m 12,9 km/h (3 Bft)
28.04.2013 00:02 6,3 C 4,6 C 79 % 1014,4 hPa 0,0 l/m 0 min 0 min 0,0 UV-I 0 W/m 10,3 km/h (2 Bft)
28.04.2013 00:06 6,2 C 4,6 C 79 % 1014,6 hPa 0,0 l/m 0 min 0 min 0,0 UV-I 0 W/m 10,3 km/h (2 Bft)
28.04.2013 00:08 6,2 C 4,6 C 79 % 1014,7 hPa 0,0 l/m 0 min 0 min 0,0 UV-I 0 W/m 5,1 km/h (1 Bft)
28.04.2013 00:10 6,2 C 4,6 C 79 % 1014,7 hPa 0,0 l/m 0 min 0 min 0,0 UV-I 0 W/m 7,7 km/h (2 Bft)
28.04.2013 00:12 6,1 C 4,6 C 80 % 1014,7 hPa 0,0 l/m 0 min 0 min 0,0 UV-I 0 W/m 7,7 km/h (2 Bft)
28.04.2013 00:14 6,1 C 4,6 C 80 % 1014,7 hPa 0,0 l/m 0 min 0 min 0,0 UV-I 0 W/m 7,7 km/h (2 Bft)
28.04.2013 00:16 6,0 C 4,6 C 80 % 1014,7 hPa 0,0 l/m 0 min 0 min 0,0 UV-I 0 W/m 10,3 km/h (2 Bft)
28.04.2013 00:18 6,0 C 4,6 C 80 % 1014,5 hPa 0,0 l/m 0 min 0 min 0,0 UV-I 0 W/m 10,3 km/h (2 Bft)
28.04.2013 00:20 5,9 C 4,6 C 80 % 1014,5 hPa 0,0 l/m 0 min 0 min 0,0 UV-I 0 W/m 10,3 km/h (2 Bft)
28.04.2013 00:22 5,9 C 4,6 C 80 % 1014,6 hPa 0,0 l/m 0 min 0 min 0,0 UV-I 0 W/m 18,0 km/h (3 Bft)
28.04.2013 00:24 5,9 C 4,6 C 81 % 1014,6 hPa 0,0 l/m 0 min 0 min 0,0 UV-I 0 W/m 15,4 km/h (3 Bft)
28.04.2013 00:26 5,9 C 4,6 C 81 % 1014,7 hPa 0,0 l/m 0 min 0 min 0,0 UV-I 0 W/m 12,9 km/h (3 Bft)
28.04.2013 00:28 5,8 C 4,6 C 81 % 1014,6 hPa 0,0 l/m 0 min 0 min 0,0 UV-I 0 W/m 12,9 km/h (3 Bft)
28.04.2013 00:30 5,8 C 4,6 C 81 % 1014,6 hPa 0,0 l/m 0 min 0 min 0,0 UV-I 0 W/m 10,3 km/h (2 Bft)
28.04.2013 00:32 5,8 C 4,6 C 81 % 1014,7 hPa 0,0 l/m 0 min 0 min 0,0 UV-I 0 W/m 12,9 km/h (3 Bft)
28.04.2013 00:34 5,8 C 4,6 C 81 % 1014,7 hPa 0,0 l/m 0 min 0 min 0,0 UV-I 0 W/m 10,3 km/h (2 Bft)
28.04.2013 00:36 5,8 C 4,6 C 82 % 1014,6 hPa 0,0 l/m 0 min 0 min 0,0 UV-I 0 W/m 10,3 km/h (2 Bft)
28.04.2013 00:38 5,8 C 4,6 C 82 % 1014,6 hPa 0,0 l/m 0 min 0 min 0,0 UV-I 0 W/m 12,9 km/h (3 Bft)
28.04.2013 00:40 5,8 C 4,6 C 82 % 1014,6 hPa 0,0 l/m 0 min 0 min 0,0 UV-I 0 W/m 12,9 km/h (3 Bft)
28.04.2013 00:42 5,8 C 4,6 C 82 % 1014,6 hPa 0,0 l/m 0 min 0 min 0,0 UV-I 0 W/m 12,9 km/h (3 Bft)
28.04.2013 00:44 5,8 C 4,6 C 82 % 1014,6 hPa 0,0 l/m 0 min 0 min 0,0 UV-I 0 W/m 10,3 km/h (2 Bft)
28.04.2013 00:46 5,8 C 4,6 C 82 % 1014,5 hPa 0,0 l/m 0 min 0 min 0,0 UV-I 0 W/m 15,4 km/h (3 Bft)
28.04.2013 00:48 5,8 C 4,6 C 86 % 1014,6 hPa 0,0 l/m 0 min 0 min 0,0 UV-I 0 W/m 12,9 km/h (3 Bft)
28.04.2013 00:50 5,8 C 4,6 C 82 % 1014,7 hPa 0,0 l/m 0 min 0 min 0,0 UV-I 0 W/m 10,3 km/h (2 Bft)
28.04.2013 00:52 5,8 C 4,6 C 82 % 1014,6 hPa 0,0 l/m 0 min 0 min 0,0 UV-I 0 W/m 10,3 km/h (2 Bft)
28.04.2013 00:54 5,8 C 4,6 C 82 % 1014,7 hPa 0,0 l/m 0 min 0 min 0,0 UV-I 0 W/m 10,3 km/h (2 Bft)
28.04.2013 00:56 5,8 C 4,6 C 82 % 1014,7 hPa 0,0 l/m 0 min 0 min 0,0 UV-I 0 W/m 7,7 km/h (2 Bft)
28.04.2013 00:58 5,7 C 4,6 C 83 % 1014,7 hPa 0,0 l/m 0 min 0 min 0,0 UV-I 0 W/m 10,3 km/h (2 Bft)
28.04.2013 01:00 5,7 C 4,6 C 83 % 1014,8 hPa 0,0 l/m 0 min 0 min 0,0 UV-I 0 W/m 12,9 km/h (3 Bft)
28.04.2013 01:02 5,7 C 4,6 C 83 % 1014,7 hPa 0,0 l/m 0 min 0 min 0,0 UV-I 0 W/m 15,4 km/h (3 Bft)
28.04.2013 01:04 5,7 C 4,6 C 83 % 1014,7 hPa 0,0 l/m 0 min 0 min 0,0 UV-I 0 W/m 12,9 km/h (3 Bft)
28.04.2013 01:06 5,7 C 4,6 C 83 % 1014,7 hPa 0,0 l/m 0 min 0 min 0,0 UV-I 0 W/m 10,3 km/h (2 Bft)
28.04.2013 01:08 5,7 C 4,0 C 83 % 1014,8 hPa 0,0 l/m 0 min 0 min 0,0 UV-I 0 W/m 7,7 km/h (2 Bft)
28.04.2013 01:10 5,6 C 4,0 C 83 % 1014,9 hPa 0,0 l/m 0 min 0 min 0,0 UV-I 0 W/m 12,9 km/h (3 Bft)
28.04.2013 01:12 5,6 C 4,0 C 83 % 1014,8 hPa 0,0 l/m 0 min 0 min 0,0 UV-I 0 W/m 10,3 km/h (2 Bft)
28.04.2013 01:14 5,6 C 4,0 C 83 % 1014,8 hPa 0,0 l/m 0 min 0 min 0,0 UV-I 0 W/m 10,3 km/h (2 Bft)
28.04.2013 01:16 5,5 C 4,0 C 83 % 1014,9 hPa 0,0 l/m 0 min 0 min 0,0 UV-I 0 W/m 15,4 km/h (3 Bft)
28.04.2013 01:18 5,5 C 4,0 C 84 % 1014,8 hPa 0,0 l/m 0 min 0 min 0,0 UV-I 0 W/m 10,3 km/h (2 Bft)
28.04.2013 01:20 5,4 C 4,0 C 84 % 1014,8 hPa 0,0 l/m 0 min 0 min 0,0 UV-I 0 W/m 12,9 km/h (3 Bft)
28.04.2013 01:22 5,4 C 4,0 C 84 % 1014,8 hPa 0,0 l/m 0 min 0 min 0,0 UV-I 0 W/m 12,9 km/h (3 Bft)
28.04.2013 01:24 5,3 C 4,0 C 84 % 1014,8 hPa 0,0 l/m 0 min 0 min 0,0 UV-I 0 W/m 10,3 km/h (2 Bft)
28.04.2013 01:26 5,3 C 4,0 C 84 % 1014,9 hPa 0,0 l/m 0 min 0 min 0,0 UV-I 0 W/m 12,9 km/h (3 Bft)
28.04.2013 01:28 5,3 C 4,0 C 84 % 1014,9 hPa 0,0 l/m 0 min 0 min 0,0 UV-I 0 W/m 10,3 km/h (2 Bft)
28.04.2013 01:30 5,3 C 4,0 C 84 % 1014,8 hPa 0,0 l/m 0 min 0 min 0,0 UV-I 0 W/m 12,9 km/h (3 Bft)
28.04.2013 01:32 5,2 C 4,0 C 84 % 1014,9 hPa 0,0 l/m 0 min 0 min 0,0 UV-I 0 W/m 10,3 km/h (2 Bft)
28.04.2013 01:34 5,2 C 4,0 C 84 % 1014,9 hPa 0,0 l/m 0 min 0 min 0,0 UV-I 0 W/m 10,3 km/h (2 Bft)
28.04.2013 01:36 5,1 C 4,0 C 85 % 1014,9 hPa 0,0 l/m 0 min 0 min 0,0 UV-I 0 W/m 15,4 km/h (3 Bft)
28.04.2013 01:38 5,1 C 4,0 C 84 % 1015,0 hPa 0,0 l/m 0 min 0 min 0,0 UV-I 0 W/m 10,3 km/h (2 Bft)
28.04.2013 01:40 5,1 C 4,0 C 85 % 1015,0 hPa 0,0 l/m 0 min 0 min 0,0 UV-I 0 W/m 12,9 km/h (3 Bft)
28.04.2013 01:42 5,1 C 4,0 C 85 % 1014,9 hPa 0,0 l/m 0 min 0 min 0,0 UV-I 0 W/m 10,3 km/h (2 Bft)
28.04.2013 01:44 5,0 C 3,4 C 85 % 1014,9 hPa 0,0 l/m 0 min 0 min 0,0 UV-I 0 W/m 10,3 km/h (2 Bft)
28.04.2013 01:46 4,9 C 3,4 C 85 % 1014,8 hPa 0,0 l/m 0 min 0 min 0,0 UV-I 0 W/m 10,3 km/h (2 Bft)
28.04.2013 01:48 4,9 C 3,4 C 85 % 1014,7 hPa 0,0 l/m 0 min 0 min 0,0 UV-I 0 W/m 7,7 km/h (2 Bft)
28.04.2013 01:50 4,9 C 3,4 C 85 % 1014,8 hPa 0,0 l/m 0 min 0 min 0,0 UV-I 0 W/m 12,9 km/h (3 Bft)
28.04.2013 01:52 4,9 C 3,4 C 85 % 1014,9 hPa 0,0 l/m 0 min 0 min 0,0 UV-I 0 W/m 10,3 km/h (2 Bft)
28.04.2013 01:54 4,8 C 3,4 C 85 % 1015,0 hPa 0,0 l/m 0 min 0 min 0,0 UV-I 0 W/m 7,7 km/h (2 Bft)
28.04.2013 01:56 4,8 C 3,4 C 85 % 1015,0 hPa 0,0 l/m 0 min 0 min 0,0 UV-I 0 W/m 2,6 km/h (1 Bft)
28.04.2013 01:58 4,8 C 3,4 C 85 % 1015,0 hPa 0,0 l/m 0 min 0 min 0,0 UV-I 0 W/m 7,7 km/h (2 Bft)
28.04.2013 02:00 4,7 C 3,4 C 85 % 1015,0 hPa 0,0 l/m 0 min 0 min 0,0 UV-I 0 W/m 7,7 km/h (2 Bft)
28.04.2013 02:02 4,7 C 3,4 C 85 % 1015,1 hPa 0,0 l/m 0 min 0 min 0,0 UV-I 0 W/m 10,3 km/h (2 Bft)
28.04.2013 02:04 4,7 C 3,4 C 86 % 1015,1 hPa 0,0 l/m 0 min 0 min 0,0 UV-I 0 W/m 7,7 km/h (2 Bft)
28.04.2013 02:06 4,7 C 3,4 C 86 % 1015,0 hPa 0,0 l/m 0 min 0 min 0,0 UV-I 0 W/m 7,7 km/h (2 Bft)
28.04.2013 02:08 4,6 C 3,4 C 86 % 1015,1 hPa 0,0 l/m 0 min 0 min 0,0 UV-I 0 W/m 7,7 km/h (2 Bft)
28.04.2013 02:10 4,6 C 3,4 C 86 % 1015,1 hPa 0,0 l/m 0 min 0 min 0,0 UV-I 0 W/m 10,3 km/h (2 Bft)
28.04.2013 02:12 4,6 C 2,9 C 86 % 1015,0 hPa 0,0 l/m 0 min 0 min 0,0 UV-I 0 W/m 10,3 km/h (2 Bft)
28.04.2013 02:14 4,5 C 2,9 C 86 % 1015,1 hPa 0,0 l/m 0 min 0 min 0,0 UV-I 0 W/m 10,3 km/h (2 Bft)
28.04.2013 02:16 4,4 C 2,9 C 86 % 1015,0 hPa 0,0 l/m 0 min 0 min 0,0 UV-I 0 W/m 12,9 km/h (3 Bft)
28.04.2013 02:18 4,4 C 2,9 C 86 % 1015,0 hPa 0,0 l/m 0 min 0 min 0,0 UV-I 0 W/m 7,7 km/h (2 Bft)
28.04.2013 02:20 4,4 C 2,9 C 86 % 1015,0 hPa 0,0 l/m 0 min 0 min 0,0 UV-I 0 W/m 7,7 km/h (2 Bft)
28.04.2013 02:22 4,3 C 2,9 C 86 % 1015,0 hPa 0,0 l/m 0 min 0 min 0,0 UV-I 0 W/m 12,9 km/h (3 Bft)
28.04.2013 02:24 4,3 C 2,9 C 86 % 1015,1 hPa 0,0 l/m 0 min 0 min 0,0 UV-I 0 W/m 0,0 km/h (0 Bft)
28.04.2013 02:26 4,3 C 2,9 C 86 % 1015,1 hPa 0,0 l/m 0 min 0 min 0,0 UV-I 0 W/m 15,4 km/h (3 Bft)
28.04.2013 02:28 4,3 C 2,9 C 87 % 1015,1 hPa 0,0 l/m 0 min 0 min 0,0 UV-I 0 W/m 5,1 km/h (1 Bft)
28.04.2013 02:30 4,3 C 2,9 C 87 % 1015,1 hPa 0,0 l/m 0 min 0 min 0,0 UV-I 0 W/m 2,6 km/h (1 Bft)
28.04.2013 02:32 4,3 C 2,9 C 87 % 1015,0 hPa 0,0 l/m 0 min 0 min 0,0 UV-I 0 W/m 5,1 km/h (1 Bft)
28.04.2013 02:34 4,2 C 2,9 C 87 % 1015,0 hPa 0,0 l/m 0 min 0 min 0,0 UV-I 0 W/m 0,0 km/h (0 Bft)
28.04.2013 02:36 4,2 C 2,9 C 87 % 1015,0 hPa 0,0 l/m 0 min 0 min 0,0 UV-I 0 W/m 0,0 km/h (0 Bft)
28.04.2013 02:38 4,2 C 2,9 C 87 % 1015,0 hPa 0,0 l/m 0 min 0 min 0,0 UV-I 0 W/m 10,3 km/h (2 Bft)
28.04.2013 02:40 4,2 C 2,9 C 87 % 1015,1 hPa 0,0 l/m 0 min 0 min 0,0 UV-I 0 W/m 0,0 km/h (0 Bft)
28.04.2013 02:42 4,2 C 2,9 C 87 % 1015,1 hPa 0,0 l/m 0 min 0 min 0,0 UV-I 0 W/m 0,0 km/h (0 Bft)
28.04.2013 02:44 4,1 C 2,9 C 87 % 1015,2 hPa 0,0 l/m 0 min 0 min 0,0 UV-I 0 W/m 0,0 km/h (0 Bft)
28.04.2013 02:46 4,1 C 2,3 C 87 % 1015,1 hPa 0,0 l/m 0 min 0 min 0,0 UV-I 0 W/m 0,0 km/h (0 Bft)
28.04.2013 02:48 4,1 C 2,3 C 87 % 1015,2 hPa 0,0 l/m 0 min 0 min 0,0 UV-I 0 W/m 2,6 km/h (1 Bft)
28.04.2013 02:50 4,1 C 2,3 C 87 % 1015,3 hPa 0,0 l/m 0 min 0 min 0,0 UV-I 0 W/m 0,0 km/h (0 Bft)
28.04.2013 02:52 4,0 C 2,3 C 87 % 1015,3 hPa 0,0 l/m 0 min 0 min 0,0 UV-I 0 W/m 0,0 km/h (0 Bft)
28.04.2013 02:54 3,9 C 2,3 C 88 % 1015,3 hPa 0,0 l/m 0 min 0 min 0,0 UV-I 0 W/m 7,7 km/h (2 Bft)
28.04.2013 02:56 3,9 C 2,3 C 87 % 1015,3 hPa 0,0 l/m 0 min 0 min 0,0 UV-I 0 W/m 7,7 km/h (2 Bft)
28.04.2013 02:58 3,9 C 2,3 C 88 % 1015,2 hPa 0,0 l/m 0 min 0 min 0,0 UV-I 0 W/m 5,1 km/h (1 Bft)
28.04.2013 03:00 3,8 C 2,3 C 88 % 1015,2 hPa 0,0 l/m 0 min 0 min 0,0 UV-I 0 W/m 12,9 km/h (3 Bft)
28.04.2013 03:02 3,8 C 2,3 C 88 % 1015,2 hPa 0,0 l/m 0 min 0 min 0,0 UV-I 0 W/m 0,0 km/h (0 Bft)
28.04.2013 03:04 3,8 C 2,3 C 88 % 1015,2 hPa 0,0 l/m 0 min 0 min 0,0 UV-I 0 W/m 7,7 km/h (2 Bft)
28.04.2013 03:06 3,7 C 2,3 C 93 % 1015,3 hPa 0,0 l/m 0 min 0 min 0,0 UV-I 0 W/m 7,7 km/h (2 Bft)
28.04.2013 03:08 3,7 C 2,3 C 88 % 1015,4 hPa 0,0 l/m 0 min 0 min 0,0 UV-I 0 W/m 0,0 km/h (0 Bft)
28.04.2013 03:10 3,7 C 2,3 C 88 % 1015,4 hPa 0,0 l/m 0 min 0 min 0,0 UV-I 0 W/m 2,6 km/h (1 Bft)
28.04.2013 03:12 3,6 C 2,3 C 88 % 1015,4 hPa 0,0 l/m 0 min 0 min 0,0 UV-I 0 W/m 5,1 km/h (1 Bft)
28.04.2013 03:14 3,6 C 2,3 C 89 % 1015,5 hPa 0,0 l/m 0 min 0 min 0,0 UV-I 0 W/m 0,0 km/h (0 Bft)
28.04.2013 03:16 3,6 C 1,8 C 89 % 1015,5 hPa 0,0 l/m 0 min 0 min 0,0 UV-I 0 W/m 5,1 km/h (1 Bft)
28.04.2013 03:18 3,6 C 1,8 C 89 % 1015,5 hPa 0,0 l/m 0 min 0 min 0,0 UV-I 0 W/m 0,0 km/h (0 Bft)
28.04.2013 03:20 3,5 C 1,8 C 89 % 1015,5 hPa 0,0 l/m 0 min 0 min 0,0 UV-I 0 W/m 0,0 km/h (0 Bft)
28.04.2013 03:22 3,5 C 1,8 C 89 % 1015,5 hPa 0,0 l/m 0 min 0 min 0,0 UV-I 0 W/m 0,0 km/h (0 Bft)
28.04.2013 03:24 3,4 C 1,8 C 89 % 1015,6 hPa 0,0 l/m 0 min 0 min 0,0 UV-I 0 W/m 0,0 km/h (0 Bft)
28.04.2013 03:26 3,4 C 1,8 C 89 % 1015,6 hPa 0,0 l/m 0 min 0 min 0,0 UV-I 0 W/m 0,0 km/h (0 Bft)
28.04.2013 03:28 3,4 C 1,8 C 89 % 1015,6 hPa 0,0 l/m 0 min 0 min 0,0 UV-I 0 W/m 2,6 km/h (1 Bft)
28.04.2013 03:30 3,3 C 1,8 C 89 % 1015,7 hPa 0,0 l/m 0 min 0 min 0,0 UV-I 0 W/m 0,0 km/h (0 Bft)
28.04.2013 03:32 3,3 C 1,8 C 89 % 1015,7 hPa 0,0 l/m 0 min 0 min 0,0 UV-I 0 W/m 0,0 km/h (0 Bft)
28.04.2013 03:34 3,3 C 1,8 C 89 % 1015,7 hPa 0,0 l/m 0 min 0 min 0,0 UV-I 0 W/m 0,0 km/h (0 Bft)
28.04.2013 03:36 3,3 C 1,8 C 89 % 1015,6 hPa 0,0 l/m 0 min 0 min 0,0 UV-I 0 W/m 0,0 km/h (0 Bft)
28.04.2013 03:38 3,3 C 1,8 C 89 % 1015,7 hPa 0,0 l/m 0 min 0 min 0,0 UV-I 0 W/m 2,6 km/h (1 Bft)
28.04.2013 03:40 3,2 C 1,8 C 89 % 1015,8 hPa 0,0 l/m 0 min 0 min 0,0 UV-I 0 W/m 0,0 km/h (0 Bft)
28.04.2013 03:42 3,2 C 1,8 C 89 % 1015,8 hPa 0,0 l/m 0 min 0 min 0,0 UV-I 0 W/m 0,0 km/h (0 Bft)
28.04.2013 03:44 3,2 C 1,8 C 89 % 1015,7 hPa 0,0 l/m 0 min 0 min 0,0 UV-I 0 W/m 0,0 km/h (0 Bft)
28.04.2013 03:46 3,1 C 1,8 C 89 % 1015,7 hPa 0,0 l/m 0 min 0 min 0,0 UV-I 0 W/m 0,0 km/h (0 Bft)
28.04.2013 03:48 3,1 C 1,8 C 89 % 1015,9 hPa 0,0 l/m 0 min 0 min 0,0 UV-I 0 W/m 0,0 km/h (0 Bft)
28.04.2013 03:50 3,1 C 1,2 C 90 % 1015,9 hPa 0,0 l/m 0 min 0 min 0,0 UV-I 0 W/m 0,0 km/h (0 Bft)
28.04.2013 03:52 3,1 C 1,2 C 90 % 1015,9 hPa 0,0 l/m 0 min 0 min 0,0 UV-I 0 W/m 0,0 km/h (0 Bft)
28.04.2013 03:54 3,0 C 1,2 C 90 % 1015,8 hPa 0,0 l/m 0 min 0 min 0,0 UV-I 0 W/m 0,0 km/h (0 Bft)
28.04.2013 03:56 3,0 C 1,2 C 90 % 1015,8 hPa 0,0 l/m 0 min 0 min 0,0 UV-I 0 W/m 0,0 km/h (0 Bft)
28.04.2013 03:58 2,9 C 1,2 C 90 % 1015,8 hPa 0,0 l/m 0 min 0 min 0,0 UV-I 0 W/m 0,0 km/h (0 Bft)
28.04.2013 04:00 2,9 C 1,2 C 89 % 1015,8 hPa 0,0 l/m 0 min 0 min 0,0 UV-I 0 W/m 0,0 km/h (0 Bft)
28.04.2013 04:02 2,9 C 1,2 C 89 % 1015,7 hPa 0,0 l/m 0 min 0 min 0,0 UV-I 0 W/m 0,0 km/h (0 Bft)
28.04.2013 04:04 2,8 C 1,2 C 89 % 1015,7 hPa 0,0 l/m 0 min 0 min 0,0 UV-I 0 W/m 0,0 km/h (0 Bft)
28.04.2013 04:06 2,8 C 0,7 C 89 % 1015,7 hPa 0,0 l/m 0 min 0 min 0,0 UV-I 0 W/m 0,0 km/h (0 Bft)
28.04.2013 04:08 2,8 C 0,7 C 89 % 1015,7 hPa 0,0 l/m 0 min 0 min 0,0 UV-I 0 W/m 0,0 km/h (0 Bft)
28.04.2013 04:10 2,8 C 0,7 C 89 % 1015,5 hPa 0,0 l/m 0 min 0 min 0,0 UV-I 0 W/m 0,0 km/h (0 Bft)
28.04.2013 04:12 2,7 C 0,7 C 90 % 1015,6 hPa 0,0 l/m 0 min 0 min 0,0 UV-I 0 W/m 0,0 km/h (0 Bft)
28.04.2013 04:14 2,7 C 1,2 C 90 % 1015,6 hPa 0,0 l/m 0 min 0 min 0,0 UV-I 0 W/m 0,0 km/h (0 Bft)
28.04.2013 04:16 2,6 C 0,7 C 90 % 1015,6 hPa 0,0 l/m 0 min 0 min 0,0 UV-I 0 W/m 0,0 km/h (0 Bft)
28.04.2013 04:18 2,6 C 0,7 C 90 % 1015,7 hPa 0,0 l/m 0 min 0 min 0,0 UV-I 0 W/m 0,0 km/h (0 Bft)
28.04.2013 04:20 2,6 C 0,7 C 90 % 1015,9 hPa 0,0 l/m 0 min 0 min 0,0 UV-I 0 W/m 2,6 km/h (1 Bft)
28.04.2013 04:22 2,5 C 0,7 C 90 % 1015,9 hPa 0,0 l/m 0 min 0 min 0,0 UV-I 0 W/m 0,0 km/h (0 Bft)
28.04.2013 04:24 2,5 C 0,7 C 90 % 1015,9 hPa 0,0 l/m 0 min 0 min 0,0 UV-I 0 W/m 0,0 km/h (0 Bft)
28.04.2013 04:26 2,4 C 0,7 C 90 % 1015,9 hPa 0,0 l/m 0 min 0 min 0,0 UV-I 0 W/m 0,0 km/h (0 Bft)
28.04.2013 04:28 2,4 C 0,7 C 90 % 1015,9 hPa 0,0 l/m 0 min 0 min 0,0 UV-I 0 W/m 0,0 km/h (0 Bft)
28.04.2013 04:30 2,4 C 0,7 C 90 % 1015,9 hPa 0,0 l/m 0 min 0 min 0,0 UV-I 0 W/m 0,0 km/h (0 Bft)
28.04.2013 04:32 2,3 C 0,7 C 90 % 1015,9 hPa 0,0 l/m 0 min 0 min 0,0 UV-I 0 W/m 0,0 km/h (0 Bft)
28.04.2013 04:34 2,3 C 0,7 C 90 % 1015,9 hPa 0,0 l/m 0 min 0 min 0,0 UV-I 0 W/m 0,0 km/h (0 Bft)
28.04.2013 04:36 2,3 C 0,7 C 90 % 1015,9 hPa 0,0 l/m 0 min 0 min 0,0 UV-I 0 W/m 0,0 km/h (0 Bft)
28.04.2013 04:38 2,3 C 0,7 C 91 % 1015,9 hPa 0,0 l/m 0 min 0 min 0,0 UV-I 0 W/m 5,1 km/h (1 Bft)
28.04.2013 04:40 2,2 C 0,7 C 91 % 1015,9 hPa 0,0 l/m 0 min 0 min 0,0 UV-I 0 W/m 2,6 km/h (1 Bft)
28.04.2013 04:42 2,2 C 0,7 C 91 % 1016,0 hPa 0,0 l/m 0 min 0 min 0,0 UV-I 0 W/m 0,0 km/h (0 Bft)
28.04.2013 04:44 2,2 C 0,7 C 91 % 1016,1 hPa 0,0 l/m 0 min 0 min 0,0 UV-I 0 W/m 0,0 km/h (0 Bft)
28.04.2013 04:46 2,2 C 0,7 C 91 % 1016,1 hPa 0,0 l/m 0 min 0 min 0,0 UV-I 0 W/m 0,0 km/h (0 Bft)
28.04.2013 04:48 2,1 C 0,7 C 91 % 1016,1 hPa 0,0 l/m 0 min 0 min 0,0 UV-I 0 W/m 2,6 km/h (1 Bft)
28.04.2013 04:50 2,1 C 0,7 C 91 % 1015,9 hPa 0,0 l/m 0 min 0 min 0,0 UV-I 0 W/m 5,1 km/h (1 Bft)
28.04.2013 04:52 2,1 C 0,7 C 91 % 1016,1 hPa 0,0 l/m 0 min 0 min 0,0 UV-I 0 W/m 2,6 km/h (1 Bft)
28.04.2013 04:54 2,1 C 0,7 C 91 % 1016,0 hPa 0,0 l/m 0 min 0 min 0,0 UV-I 0 W/m 0,0 km/h (0 Bft)
28.04.2013 04:56 2,0 C 0,7 C 91 % 1016,0 hPa 0,0 l/m 0 min 0 min 0,0 UV-I 0 W/m 2,6 km/h (1 Bft)
28.04.2013 04:58 2,0 C 0,7 C 91 % 1016,0 hPa 0,0 l/m 0 min 0 min 0,0 UV-I 0 W/m 0,0 km/h (0 Bft)
28.04.2013 05:00 2,0 C 0,7 C 91 % 1016,0 hPa 0,0 l/m 0 min 0 min 0,0 UV-I 0 W/m 5,1 km/h (1 Bft)
28.04.2013 05:02 2,0 C 0,7 C 91 % 1016,1 hPa 0,0 l/m 0 min 0 min 0,0 UV-I 0 W/m 7,7 km/h (2 Bft)
28.04.2013 05:04 1,9 C 0,7 C 92 % 1016,0 hPa 0,0 l/m 0 min 0 min 0,0 UV-I 0 W/m 5,1 km/h (1 Bft)
28.04.2013 05:06 1,9 C 0,7 C 92 % 1016,0 hPa 0,0 l/m 0 min 0 min 0,0 UV-I 0 W/m 2,6 km/h (1 Bft)
28.04.2013 05:08 1,9 C 0,7 C 92 % 1016,0 hPa 0,0 l/m 0 min 0 min 0,0 UV-I 0 W/m 0,0 km/h (0 Bft)
28.04.2013 05:10 1,9 C 0,7 C 92 % 1016,0 hPa 0,0 l/m 0 min 0 min 0,0 UV-I 0 W/m 0,0 km/h (0 Bft)
28.04.2013 05:12 1,9 C 0,7 C 92 % 1016,0 hPa 0,0 l/m 0 min 0 min 0,0 UV-I 0 W/m 0,0 km/h (0 Bft)
28.04.2013 05:14 1,9 C 0,7 C 92 % 1016,0 hPa 0,0 l/m 0 min 0 min 0,0 UV-I 0 W/m 0,0 km/h (0 Bft)
28.04.2013 05:16 1,8 C 0,7 C 92 % 1016,0 hPa 0,0 l/m 0 min 0 min 0,0 UV-I 0 W/m 0,0 km/h (0 Bft)
28.04.2013 05:18 1,8 C 0,1 C 92 % 1016,0 hPa 0,0 l/m 0 min 0 min 0,0 UV-I 0 W/m 0,0 km/h (0 Bft)
28.04.2013 05:20 1,8 C 0,1 C 92 % 1016,1 hPa 0,0 l/m 0 min 0 min 0,0 UV-I 0 W/m 0,0 km/h (0 Bft)
28.04.2013 05:22 1,8 C 0,1 C 92 % 1016,0 hPa 0,0 l/m 0 min 0 min 0,0 UV-I 0 W/m 0,0 km/h (0 Bft)
28.04.2013 05:24 1,8 C 0,1 C 92 % 1016,0 hPa 0,0 l/m 0 min 0 min 0,0 UV-I 0 W/m 0,0 km/h (0 Bft)
28.04.2013 05:26 1,8 C 0,1 C 92 % 1016,0 hPa 0,0 l/m 0 min 0 min 0,0 UV-I 0 W/m 0,0 km/h (0 Bft)
28.04.2013 05:28 1,7 C 0,1 C 92 % 1016,0 hPa 0,0 l/m 0 min 0 min 0,0 UV-I 0 W/m 0,0 km/h (0 Bft)
28.04.2013 05:30 1,7 C 0,1 C 92 % 1015,9 hPa 0,0 l/m 0 min 0 min 0,0 UV-I 0 W/m 0,0 km/h (0 Bft)
28.04.2013 05:32 1,7 C 0,1 C 92 % 1015,9 hPa 0,0 l/m 0 min 0 min 0,0 UV-I 0 W/m 0,0 km/h (0 Bft)
28.04.2013 05:34 1,7 C 0,1 C 92 % 1016,0 hPa 0,0 l/m 0 min 0 min 0,0 UV-I 0 W/m 0,0 km/h (0 Bft)
28.04.2013 05:36 1,7 C 0,1 C 92 % 1015,9 hPa 0,0 l/m 0 min 0 min 0,0 UV-I 0 W/m 0,0 km/h (0 Bft)
28.04.2013 05:38 1,6 C 0,1 C 92 % 1015,9 hPa 0,0 l/m 0 min 0 min 0,0 UV-I 0 W/m 0,0 km/h (0 Bft)
28.04.2013 05:40 1,6 C 0,1 C 92 % 1015,9 hPa 0,0 l/m 0 min 0 min 0,0 UV-I 0 W/m 0,0 km/h (0 Bft)
28.04.2013 05:42 1,6 C 0,1 C 92 % 1015,9 hPa 0,0 l/m 0 min 0 min 0,0 UV-I 0 W/m 0,0 km/h (0 Bft)
28.04.2013 05:44 1,6 C -0,4 C 92 % 1015,9 hPa 0,0 l/m 0 min 0 min 0,0 UV-I 0 W/m 0,0 km/h (0 Bft)
28.04.2013 05:46 1,5 C -0,4 C 92 % 1015,9 hPa 0,0 l/m 0 min 0 min 0,0 UV-I 0 W/m 0,0 km/h (0 Bft)
28.04.2013 05:48 1,5 C -0,4 C 92 % 1015,9 hPa 0,0 l/m 0 min 0 min 0,0 UV-I 0 W/m 0,0 km/h (0 Bft)
28.04.2013 05:50 1,4 C -0,4 C 92 % 1015,9 hPa 0,0 l/m 0 min 0 min 0,0 UV-I 0 W/m 0,0 km/h (0 Bft)
28.04.2013 05:52 1,4 C -0,4 C 92 % 1015,9 hPa 0,0 l/m 0 min 0 min 0,0 UV-I 0 W/m 0,0 km/h (0 Bft)
28.04.2013 05:54 1,4 C -0,4 C 92 % 1015,9 hPa 0,0 l/m 0 min 0 min 0,0 UV-I 0 W/m 0,0 km/h (0 Bft)
28.04.2013 05:56 1,3 C -0,4 C 92 % 1015,9 hPa 0,0 l/m 0 min 0 min 0,0 UV-I 0 W/m 0,0 km/h (0 Bft)
28.04.2013 05:58 1,3 C -0,4 C 92 % 1015,8 hPa 0,0 l/m 0 min 0 min 0,0 UV-I 0 W/m 0,0 km/h (0 Bft)
28.04.2013 06:00 1,3 C -0,4 C 92 % 1015,9 hPa 0,0 l/m 0 min 0 min 0,0 UV-I 0 W/m 0,0 km/h (0 Bft)
28.04.2013 06:02 1,3 C -0,4 C 92 % 1015,9 hPa 0,0 l/m 0 min 0 min 0,0 UV-I 0 W/m 0,0 km/h (0 Bft)
28.04.2013 06:04 1,3 C -0,4 C 92 % 1015,9 hPa 0,0 l/m 0 min 0 min 0,0 UV-I 0 W/m 0,0 km/h (0 Bft)
28.04.2013 06:06 1,3 C -0,4 C 92 % 1016,0 hPa 0,0 l/m 0 min 0 min 0,0 UV-I 0 W/m 0,0 km/h (0 Bft)
28.04.2013 06:08 1,3 C -0,4 C 92 % 1015,8 hPa 0,0 l/m 0 min 0 min 0,0 UV-I 0 W/m 0,0 km/h (0 Bft)
28.04.2013 06:10 1,3 C -1,0 C 92 % 1015,9 hPa 0,0 l/m 0 min 0 min 0,0 UV-I 0 W/m 0,0 km/h (0 Bft)
28.04.2013 06:12 1,2 C -1,0 C 92 % 1015,8 hPa 0,0 l/m 0 min 0 min 0,0 UV-I 0 W/m 0,0 km/h (0 Bft)
28.04.2013 06:14 1,2 C -1,0 C 92 % 1015,8 hPa 0,0 l/m 0 min 0 min 0,0 UV-I 0 W/m 0,0 km/h (0 Bft)
28.04.2013 06:16 1,2 C -1,0 C 92 % 1015,9 hPa 0,0 l/m 0 min 0 min 0,0 UV-I 0 W/m 0,0 km/h (0 Bft)
28.04.2013 06:18 1,1 C -1,0 C 92 % 1015,8 hPa 0,0 l/m 0 min 0 min 0,0 UV-I 5 W/m 0,0 km/h (0 Bft)
28.04.2013 06:20 1,1 C -1,0 C 92 % 1015,8 hPa 0,0 l/m 0 min 0 min 0,0 UV-I 5 W/m 0,0 km/h (0 Bft)
28.04.2013 06:22 1,1 C -1,0 C 92 % 1015,8 hPa 0,0 l/m 0 min 0 min 0,0 UV-I 5 W/m 0,0 km/h (0 Bft)
28.04.2013 06:24 1,0 C -1,0 C 92 % 1015,8 hPa 0,0 l/m 0 min 0 min 0,0 UV-I 7 W/m 0,0 km/h (0 Bft)
28.04.2013 06:26 1,0 C -1,0 C 92 % 1015,8 hPa 0,0 l/m 0 min 0 min 0,0 UV-I 7 W/m 0,0 km/h (0 Bft)
28.04.2013 06:28 0,9 C -1,0 C 92 % 1015,9 hPa 0,0 l/m 0 min 0 min 0,0 UV-I 9 W/m 0,0 km/h (0 Bft)
28.04.2013 06:30 0,9 C -1,0 C 92 % 1015,9 hPa 0,0 l/m 0 min 0 min 0,0 UV-I 9 W/m 0,0 km/h (0 Bft)
28.04.2013 06:32 0,9 C -0,4 C 92 % 1015,9 hPa 0,0 l/m 0 min 0 min 0,0 UV-I 11 W/m 0,0 km/h (0 Bft)
28.04.2013 06:34 0,9 C -0,4 C 92 % 1015,9 hPa 0,0 l/m 0 min 0 min 0,0 UV-I 11 W/m 0,0 km/h (0 Bft)
28.04.2013 06:36 0,9 C -0,4 C 92 % 1015,9 hPa 0,0 l/m 0 min 0 min 0,0 UV-I 12 W/m 0,0 km/h (0 Bft)
28.04.2013 06:38 0,9 C -0,4 C 92 % 1016,0 hPa 0,0 l/m 0 min 0 min 0,0 UV-I 12 W/m 0,0 km/h (0 Bft)
28.04.2013 06:40 0,8 C -0,4 C 93 % 1015,9 hPa 0,0 l/m 0 min 0 min 0,0 UV-I 14 W/m 0,0 km/h (0 Bft)
28.04.2013 06:42 0,8 C -0,4 C 93 % 1015,9 hPa 0,0 l/m 0 min 0 min 0,0 UV-I 16 W/m 0,0 km/h (0 Bft)
28.04.2013 06:44 0,8 C -0,4 C 93 % 1015,9 hPa 0,0 l/m 0 min 0 min 0,0 UV-I 18 W/m 0,0 km/h (0 Bft)
28.04.2013 06:46 0,8 C -0,4 C 93 % 1015,9 hPa 0,0 l/m 0 min 0 min 0,0 UV-I 21 W/m 0,0 km/h (0 Bft)
28.04.2013 06:48 0,8 C -0,4 C 93 % 1015,9 hPa 0,0 l/m 0 min 0 min 0,0 UV-I 23 W/m 0,0 km/h (0 Bft)
28.04.2013 06:50 0,8 C -0,4 C 93 % 1015,9 hPa 0,0 l/m 0 min 0 min 0,0 UV-I 25 W/m 0,0 km/h (0 Bft)
28.04.2013 06:52 0,8 C 0,1 C 93 % 1015,9 hPa 0,0 l/m 0 min 0 min 0,0 UV-I 28 W/m 0,0 km/h (0 Bft)
28.04.2013 06:54 0,8 C 0,1 C 93 % 1015,9 hPa 0,0 l/m 0 min 0 min 0,0 UV-I 30 W/m 2,6 km/h (1 Bft)
28.04.2013 06:56 0,8 C 0,1 C 93 % 1016,0 hPa 0,0 l/m 0 min 0 min 0,0 UV-I 32 W/m 0,0 km/h (0 Bft)
28.04.2013 06:58 0,9 C 0,7 C 93 % 1016,1 hPa 0,0 l/m 0 min 0 min 0,0 UV-I 35 W/m 5,1 km/h (1 Bft)
28.04.2013 07:00 0,9 C 0,7 C 94 % 1016,0 hPa 0,0 l/m 0 min 0 min 0,0 UV-I 39 W/m 7,7 km/h (2 Bft)
28.04.2013 07:02 1,0 C 0,7 C 94 % 1016,0 hPa 0,0 l/m 0 min 0 min 0,0 UV-I 40 W/m 0,0 km/h (0 Bft)
28.04.2013 07:04 1,1 C 0,7 C 94 % 1016,0 hPa 0,0 l/m 0 min 0 min 0,0 UV-I 42 W/m 7,7 km/h (2 Bft)
28.04.2013 07:06 1,1 C 0,7 C 94 % 1016,0 hPa 0,0 l/m 0 min 0 min 0,0 UV-I 46 W/m 0,0 km/h (0 Bft)
28.04.2013 07:08 1,2 C 1,2 C 94 % 1016,1 hPa 0,0 l/m 0 min 0 min 0,0 UV-I 47 W/m 0,0 km/h (0 Bft)
28.04.2013 07:10 1,2 C 1,2 C 94 % 1016,1 hPa 0,0 l/m 0 min 0 min 0,0 UV-I 49 W/m 5,1 km/h (1 Bft)
28.04.2013 07:12 1,3 C 1,2 C 94 % 1016,1 hPa 0,0 l/m 0 min 0 min 0,0 UV-I 51 W/m 0,0 km/h (0 Bft)
28.04.2013 07:14 1,3 C 1,2 C 95 % 1016,1 hPa 0,0 l/m 0 min 0 min 0,0 UV-I 51 W/m 0,0 km/h (0 Bft)
28.04.2013 07:16 1,3 C 1,2 C 95 % 1016,1 hPa 0,0 l/m 0 min 0 min 0,0 UV-I 53 W/m 0,0 km/h (0 Bft)
28.04.2013 07:18 1,3 C 1,2 C 95 % 1016,1 hPa 0,0 l/m 0 min 0 min 0,0 UV-I 56 W/m 0,0 km/h (0 Bft)
28.04.2013 07:20 1,3 C 1,2 C 95 % 1016,2 hPa 0,0 l/m 0 min 0 min 0,0 UV-I 58 W/m 0,0 km/h (0 Bft)
28.04.2013 07:22 1,4 C 1,8 C 95 % 1016,2 hPa 0,0 l/m 0 min 0 min 0,0 UV-I 62 W/m 2,6 km/h (1 Bft)
28.04.2013 07:24 1,5 C 1,8 C 95 % 1016,2 hPa 0,0 l/m 0 min 0 min 0,0 UV-I 63 W/m 0,0 km/h (0 Bft)
28.04.2013 07:26 1,5 C 1,8 C 95 % 1016,2 hPa 0,0 l/m 0 min 0 min 0,0 UV-I 63 W/m 5,1 km/h (1 Bft)
28.04.2013 07:28 1,6 C 1,8 C 95 % 1016,2 hPa 0,0 l/m 0 min 0 min 0,0 UV-I 65 W/m 7,7 km/h (2 Bft)
28.04.2013 07:30 1,7 C 1,8 C 95 % 1016,2 hPa 0,0 l/m 0 min 0 min 0,0 UV-I 65 W/m 5,1 km/h (1 Bft)
28.04.2013 07:32 1,8 C 1,8 C 96 % 1016,1 hPa 0,0 l/m 0 min 0 min 0,0 UV-I 67 W/m 0,0 km/h (0 Bft)
28.04.2013 07:34 1,8 C 2,3 C 96 % 1016,1 hPa 0,0 l/m 0 min 0 min 0,0 UV-I 69 W/m 0,0 km/h (0 Bft)
28.04.2013 07:36 1,9 C 2,3 C 96 % 1016,2 hPa 0,0 l/m 0 min 0 min 0,0 UV-I 70 W/m 2,6 km/h (1 Bft)
28.04.2013 07:38 2,0 C 2,3 C 96 % 1016,2 hPa 0,0 l/m 0 min 0 min 0,0 UV-I 72 W/m 7,7 km/h (2 Bft)
28.04.2013 07:40 2,1 C 2,3 C 96 % 1016,2 hPa 0,0 l/m 0 min 0 min 0,0 UV-I 74 W/m 10,3 km/h (2 Bft)
28.04.2013 07:42 2,2 C 2,3 C 96 % 1016,2 hPa 0,0 l/m 0 min 0 min 0,0 UV-I 74 W/m 2,6 km/h (1 Bft)
28.04.2013 07:44 2,3 C 2,9 C 96 % 1016,2 hPa 0,0 l/m 0 min 0 min 0,0 UV-I 72 W/m 5,1 km/h (1 Bft)
28.04.2013 07:46 2,4 C 2,9 C 96 % 1016,2 hPa 0,0 l/m 0 min 0 min 0,0 UV-I 70 W/m 7,7 km/h (2 Bft)
28.04.2013 07:48 2,4 C 2,9 C 96 % 1016,2 hPa 0,0 l/m 0 min 0 min 0,0 UV-I 69 W/m 7,7 km/h (2 Bft)
28.04.2013 07:50 2,6 C 2,9 C 96 % 1016,3 hPa 0,0 l/m 0 min 0 min 0,0 UV-I 69 W/m 7,7 km/h (2 Bft)
28.04.2013 07:52 2,6 C 2,9 C 96 % 1016,3 hPa 0,0 l/m 0 min 0 min 0,0 UV-I 69 W/m 0,0 km/h (0 Bft)
28.04.2013 07:54 2,7 C 2,9 C 96 % 1016,3 hPa 0,0 l/m 0 min 0 min 0,0 UV-I 70 W/m 2,6 km/h (1 Bft)
28.04.2013 07:56 2,7 C 2,9 C 96 % 1016,4 hPa 0,0 l/m 0 min 0 min 0,0 UV-I 70 W/m 5,1 km/h (1 Bft)
28.04.2013 07:58 2,8 C 2,9 C 96 % 1016,5 hPa 0,0 l/m 0 min 0 min 0,0 UV-I 72 W/m 5,1 km/h (1 Bft)
28.04.2013 08:00 2,9 C 2,9 C 96 % 1016,6 hPa 0,0 l/m 0 min 0 min 0,0 UV-I 74 W/m 0,0 km/h (0 Bft)
28.04.2013 08:02 2,9 C 2,9 C 96 % 1016,6 hPa 0,0 l/m 0 min 0 min 0,0 UV-I 76 W/m 10,3 km/h (2 Bft)
28.04.2013 08:04 3,0 C 2,9 C 96 % 1016,6 hPa 0,0 l/m 0 min 0 min 0,0 UV-I 74 W/m 5,1 km/h (1 Bft)
28.04.2013 08:06 3,1 C 3,4 C 96 % 1016,6 hPa 0,0 l/m 0 min 0 min 0,0 UV-I 69 W/m 0,0 km/h (0 Bft)
28.04.2013 08:08 3,1 C 3,4 C 96 % 1016,7 hPa 0,0 l/m 0 min 0 min 0,0 UV-I 67 W/m 10,3 km/h (2 Bft)
28.04.2013 08:10 3,2 C 3,4 C 95 % 1016,7 hPa 0,0 l/m 0 min 0 min 0,0 UV-I 72 W/m 10,3 km/h (2 Bft)
28.04.2013 08:12 3,2 C 3,4 C 95 % 1016,7 hPa 0,0 l/m 0 min 0 min 0,0 UV-I 69 W/m 5,1 km/h (1 Bft)
28.04.2013 08:14 3,3 C 3,4 C 95 % 1016,7 hPa 0,0 l/m 0 min 0 min 0,0 UV-I 77 W/m 0,0 km/h (0 Bft)
28.04.2013 08:16 3,3 C 3,4 C 95 % 1016,7 hPa 0,0 l/m 0 min 0 min 0,0 UV-I 86 W/m 0,0 km/h (0 Bft)
28.04.2013 08:18 3,4 C 3,4 C 95 % 1016,7 hPa 0,0 l/m 0 min 0 min 0,0 UV-I 88 W/m 10,3 km/h (2 Bft)
28.04.2013 08:20 3,4 C 3,4 C 95 % 1016,7 hPa 0,0 l/m 0 min 0 min 0,0 UV-I 100 W/m 10,3 km/h (2 Bft)
28.04.2013 08:22 3,5 C 3,4 C 95 % 1016,7 hPa 0,0 l/m 0 min 0 min 0,0 UV-I 104 W/m 10,3 km/h (2 Bft)
28.04.2013 08:24 3,6 C 4,0 C 94 % 1016,8 hPa 0,0 l/m 0 min 0 min 0,0 UV-I 109 W/m 10,3 km/h (2 Bft)
28.04.2013 08:26 3,7 C 4,0 C 94 % 1016,7 hPa 0,0 l/m 0 min 0 min 0,0 UV-I 93 W/m 10,3 km/h (2 Bft)
28.04.2013 08:28 3,7 C 4,0 C 94 % 1016,8 hPa 0,0 l/m 0 min 0 min 0,0 UV-I 91 W/m 7,7 km/h (2 Bft)
28.04.2013 08:30 3,8 C 4,0 C 94 % 1016,8 hPa 0,0 l/m 0 min 0 min 0,0 UV-I 90 W/m 7,7 km/h (2 Bft)
28.04.2013 08:32 3,8 C 4,0 C 94 % 1016,9 hPa 0,0 l/m 0 min 0 min 0,0 UV-I 79 W/m 15,4 km/h (3 Bft)
28.04.2013 08:34 3,8 C 4,0 C 93 % 1016,9 hPa 0,0 l/m 0 min 0 min 0,0 UV-I 77 W/m 10,3 km/h (2 Bft)
28.04.2013 08:36 3,8 C 3,4 C 93 % 1016,9 hPa 0,0 l/m 0 min 0 min 0,0 UV-I 72 W/m 15,4 km/h (3 Bft)
28.04.2013 08:38 3,9 C 4,0 C 93 % 1016,9 hPa 0,0 l/m 0 min 0 min 0,0 UV-I 90 W/m 0,0 km/h (0 Bft)
28.04.2013 08:40 3,9 C 4,0 C 93 % 1016,9 hPa 0,0 l/m 0 min 0 min 0,0 UV-I 102 W/m 12,9 km/h (3 Bft)
28.04.2013 08:42 4,0 C 4,0 C 93 % 1017,0 hPa 0,0 l/m 0 min 0 min 0,0 UV-I 93 W/m 10,3 km/h (2 Bft)
28.04.2013 08:44 4,0 C 4,0 C 92 % 1017,0 hPa 0,0 l/m 0 min 0 min 0,0 UV-I 114 W/m 10,3 km/h (2 Bft)
28.04.2013 08:46 4,1 C 4,0 C 92 % 1017,1 hPa 0,0 l/m 0 min 0 min 0,0 UV-I 107 W/m 12,9 km/h (3 Bft)
28.04.2013 08:48 4,1 C 4,0 C 92 % 1017,1 hPa 0,0 l/m 0 min 0 min 0,0 UV-I 105 W/m 12,9 km/h (3 Bft)
28.04.2013 08:50 4,1 C 4,0 C 92 % 1017,1 hPa 0,0 l/m 0 min 0 min 0,0 UV-I 84 W/m 7,7 km/h (2 Bft)
28.04.2013 08:52 4,1 C 4,0 C 92 % 1017,1 hPa 0,0 l/m 0 min 0 min 0,0 UV-I 84 W/m 7,7 km/h (2 Bft)
28.04.2013 08:54 4,2 C 4,0 C 91 % 1017,2 hPa 0,0 l/m 0 min 0 min 0,0 UV-I 88 W/m 7,7 km/h (2 Bft)
28.04.2013 08:56 4,2 C 4,0 C 91 % 1017,2 hPa 0,0 l/m 0 min 0 min 0,0 UV-I 91 W/m 2,6 km/h (1 Bft)
28.04.2013 08:58 4,2 C 4,0 C 96 % 1017,2 hPa 0,0 l/m 0 min 0 min 0,0 UV-I 90 W/m 0,0 km/h (0 Bft)
28.04.2013 09:00 4,3 C 4,0 C 91 % 1017,2 hPa 0,0 l/m 0 min 0 min 0,0 UV-I 109 W/m 0,0 km/h (0 Bft)
28.04.2013 09:02 4,3 C 4,6 C 91 % 1017,2 hPa 0,0 l/m 0 min 0 min 0,0 UV-I 114 W/m 0,0 km/h (0 Bft)
28.04.2013 09:04 4,3 C 4,6 C 91 % 1017,2 hPa 0,0 l/m 0 min 0 min 0,0 UV-I 125 W/m 7,7 km/h (2 Bft)
28.04.2013 09:06 4,4 C 4,6 C 91 % 1017,2 hPa 0,0 l/m 0 min 0 min 0,0 UV-I 128 W/m 7,7 km/h (2 Bft)
28.04.2013 09:08 4,6 C 5,1 C 91 % 1017,2 hPa 0,0 l/m 0 min 0 min 0,0 UV-I 120 W/m 0,0 km/h (0 Bft)
28.04.2013 09:10 4,7 C 5,1 C 91 % 1017,2 hPa 0,0 l/m 0 min 0 min 0,0 UV-I 86 W/m 7,7 km/h (2 Bft)
28.04.2013 09:12 4,7 C 5,1 C 90 % 1017,2 hPa 0,0 l/m 0 min 0 min 0,0 UV-I 91 W/m 7,7 km/h (2 Bft)
28.04.2013 09:14 4,8 C 5,1 C 89 % 1017,2 hPa 0,0 l/m 0 min 0 min 0,0 UV-I 95 W/m 7,7 km/h (2 Bft)
28.04.2013 09:16 4,9 C 5,1 C 89 % 1017,2 hPa 0,0 l/m 0 min 0 min 0,0 UV-I 102 W/m 0,0 km/h (0 Bft)
28.04.2013 09:18 5,0 C 5,1 C 89 % 1017,2 hPa 0,0 l/m 0 min 0 min 0,0 UV-I 97 W/m 7,7 km/h (2 Bft)
28.04.2013 09:20 5,1 C 5,1 C 88 % 1017,2 hPa 0,0 l/m 0 min 0 min 0,0 UV-I 100 W/m 2,6 km/h (1 Bft)
28.04.2013 09:22 5,2 C 5,1 C 87 % 1017,1 hPa 0,0 l/m 0 min 0 min 0,0 UV-I 97 W/m 7,7 km/h (2 Bft)
28.04.2013 09:24 5,2 C 5,1 C 87 % 1017,2 hPa 0,0 l/m 0 min 0 min 0,0 UV-I 100 W/m 2,6 km/h (1 Bft)
28.04.2013 09:26 5,3 C 5,1 C 87 % 1017,1 hPa 0,0 l/m 0 min 0 min 0,5 UV-I 169 W/m 0,0 km/h (0 Bft)
28.04.2013 09:28 5,3 C 6,2 C 87 % 1017,1 hPa 0,0 l/m 0 min 0 min 0,5 UV-I 199 W/m 5,1 km/h (1 Bft)
28.04.2013 09:30 5,5 C 7,3 C 86 % 1017,2 hPa 0,0 l/m 0 min 0 min 0,5 UV-I 214 W/m 0,0 km/h (0 Bft)
28.04.2013 09:32 5,6 C 9,0 C 86 % 1017,2 hPa 0,0 l/m 0 min 0 min 0,6 UV-I 232 W/m 10,3 km/h (2 Bft)
28.04.2013 09:34 5,8 C 10,7 C 85 % 1017,2 hPa 0,0 l/m 0 min 0 min 0,6 UV-I 257 W/m 2,6 km/h (1 Bft)
28.04.2013 09:36 5,9 C 12,9 C 84 % 1017,2 hPa 0,0 l/m 2 min 0 min 0,6 UV-I 287 W/m 2,6 km/h (1 Bft)
28.04.2013 09:38 6,2 C 13,4 C 84 % 1017,3 hPa 0,0 l/m 2 min 0 min 0,7 UV-I 341 W/m 0,0 km/h (0 Bft)
28.04.2013 09:40 6,3 C 13,4 C 83 % 1017,2 hPa 0,0 l/m 2 min 0 min 0,7 UV-I 362 W/m 2,6 km/h (1 Bft)
28.04.2013 09:42 6,6 C 14,0 C 82 % 1017,2 hPa 0,0 l/m 2 min 0 min 0,7 UV-I 427 W/m 0,0 km/h (0 Bft)
28.04.2013 09:44 6,7 C 14,6 C 82 % 1017,3 hPa 0,0 l/m 2 min 0 min 0,0 UV-I 466 W/m 7,7 km/h (2 Bft)
28.04.2013 09:46 6,9 C 12,9 C 80 % 1017,3 hPa 0,0 l/m 0 min 0 min 0,0 UV-I 218 W/m 0,0 km/h (0 Bft)
28.04.2013 09:48 7,1 C 11,2 C 79 % 1017,3 hPa 0,0 l/m 0 min 0 min 0,0 UV-I 241 W/m 12,9 km/h (3 Bft)
28.04.2013 09:50 7,2 C 11,8 C 78 % 1017,3 hPa 0,0 l/m 0 min 0 min 0,9 UV-I 255 W/m 10,3 km/h (2 Bft)
28.04.2013 09:52 7,2 C 11,8 C 78 % 1017,3 hPa 0,0 l/m 0 min 0 min 0,5 UV-I 246 W/m 2,6 km/h (1 Bft)
28.04.2013 09:54 7,3 C 11,2 C 77 % 1017,3 hPa 0,0 l/m 2 min 0 min 0,6 UV-I 306 W/m 7,7 km/h (2 Bft)
28.04.2013 09:56 7,4 C 11,2 C 76 % 1017,4 hPa 0,0 l/m 2 min 0 min 0,7 UV-I 306 W/m 2,6 km/h (1 Bft)
28.04.2013 09:58 7,4 C 11,2 C 76 % 1017,3 hPa 0,0 l/m 2 min 0 min 0,6 UV-I 306 W/m 2,6 km/h (1 Bft)
28.04.2013 10:00 7,5 C 11,2 C 75 % 1017,3 hPa 0,0 l/m 2 min 0 min 0,8 UV-I 364 W/m 2,6 km/h (1 Bft)
28.04.2013 10:02 7,6 C 10,7 C 76 % 1017,3 hPa 0,0 l/m 2 min 0 min 0,6 UV-I 364 W/m 0,0 km/h (0 Bft)
28.04.2013 10:04 7,6 C 11,8 C 75 % 1017,4 hPa 0,0 l/m 2 min 0 min 1,0 UV-I 364 W/m 2,6 km/h (1 Bft)
28.04.2013 10:06 7,7 C 12,9 C 75 % 1017,4 hPa 0,0 l/m 2 min 0 min 1,2 UV-I 346 W/m 2,6 km/h (1 Bft)
28.04.2013 10:08 7,8 C 13,4 C 75 % 1017,4 hPa 0,0 l/m 2 min 0 min 1,1 UV-I 346 W/m 0,0 km/h (0 Bft)
28.04.2013 10:10 7,8 C 14,0 C 74 % 1017,4 hPa 0,0 l/m 2 min 0 min 1,1 UV-I 533 W/m 2,6 km/h (1 Bft)
28.04.2013 10:12 7,9 C 15,1 C 74 % 1017,4 hPa 0,0 l/m 2 min 0 min 1,0 UV-I 527 W/m 2,6 km/h (1 Bft)
28.04.2013 10:14 8,1 C 16,2 C 74 % 1017,4 hPa 0,0 l/m 2 min 0 min 1,2 UV-I 547 W/m 2,6 km/h (1 Bft)
28.04.2013 10:16 8,2 C 15,7 C 71 % 1017,4 hPa 0,0 l/m 2 min 0 min 1,2 UV-I 548 W/m 10,3 km/h (2 Bft)
28.04.2013 10:18 8,2 C 13,4 C 70 % 1017,4 hPa 0,0 l/m 0 min 0 min 0,5 UV-I 130 W/m 12,9 km/h (3 Bft)
28.04.2013 10:20 8,1 C 11,2 C 69 % 1017,4 hPa 0,0 l/m 0 min 0 min 0,0 UV-I 109 W/m 18,0 km/h (3 Bft)
28.04.2013 10:22 8,1 C 10,7 C 70 % 1017,4 hPa 0,0 l/m 0 min 0 min 1,1 UV-I 141 W/m 10,3 km/h (2 Bft)
28.04.2013 10:24 8,0 C 12,9 C 70 % 1017,5 hPa 0,0 l/m 2 min 0 min 1,0 UV-I 571 W/m 7,7 km/h (2 Bft)
28.04.2013 10:26 8,0 C 13,4 C 71 % 1017,5 hPa 0,0 l/m 2 min 0 min 1,2 UV-I 571 W/m 5,1 km/h (1 Bft)
28.04.2013 10:28 8,1 C 13,4 C 70 % 1017,5 hPa 0,0 l/m 2 min 0 min 1,3 UV-I 571 W/m 12,9 km/h (3 Bft)
28.04.2013 10:30 8,1 C 14,6 C 73 % 1017,5 hPa 0,0 l/m 2 min 0 min 1,4 UV-I 613 W/m 0,0 km/h (0 Bft)
28.04.2013 10:32 8,2 C 15,1 C 72 % 1017,5 hPa 0,0 l/m 2 min 0 min 1,5 UV-I 631 W/m 0,0 km/h (0 Bft)
28.04.2013 10:34 8,4 C 15,1 C 73 % 1017,6 hPa 0,0 l/m 2 min 0 min 1,4 UV-I 628 W/m 7,7 km/h (2 Bft)
28.04.2013 10:36 8,6 C 15,7 C 72 % 1017,5 hPa 0,0 l/m 2 min 0 min 1,5 UV-I 610 W/m 7,7 km/h (2 Bft)
28.04.2013 10:38 8,7 C 13,4 C 71 % 1017,5 hPa 0,0 l/m 2 min 0 min 0,5 UV-I 610 W/m 2,6 km/h (1 Bft)
28.04.2013 10:40 8,7 C 10,7 C 70 % 1017,5 hPa 0,0 l/m 0 min 0 min 0,0 UV-I 105 W/m 0,0 km/h (0 Bft)
28.04.2013 10:42 8,7 C 9,6 C 70 % 1017,5 hPa 0,0 l/m 0 min 0 min 0,7 UV-I 202 W/m 18,0 km/h (3 Bft)
28.04.2013 10:44 8,6 C 10,1 C 70 % 1017,5 hPa 0,0 l/m 0 min 0 min 0,9 UV-I 246 W/m 0,0 km/h (0 Bft)
28.04.2013 10:46 8,6 C 11,2 C 69 % 1017,5 hPa 0,0 l/m 0 min 0 min 1,3 UV-I 239 W/m 2,6 km/h (1 Bft)
28.04.2013 10:48 8,5 C 12,9 C 69 % 1017,5 hPa 0,0 l/m 2 min 0 min 1,2 UV-I 367 W/m 5,1 km/h (1 Bft)
28.04.2013 10:50 8,6 C 13,4 C 69 % 1017,5 hPa 0,0 l/m 0 min 0 min 1,7 UV-I 262 W/m 2,6 km/h (1 Bft)
28.04.2013 10:52 8,6 C 14,0 C 69 % 1017,5 hPa 0,0 l/m 0 min 0 min 0,9 UV-I 214 W/m 0,0 km/h (0 Bft)
28.04.2013 10:54 8,7 C 12,9 C 68 % 1017,4 hPa 0,0 l/m 0 min 0 min 0,8 UV-I 174 W/m 5,1 km/h (1 Bft)
28.04.2013 10:56 8,8 C 12,3 C 69 % 1017,4 hPa 0,0 l/m 0 min 0 min 1,0 UV-I 185 W/m 2,6 km/h (1 Bft)
28.04.2013 10:58 8,8 C 12,9 C 70 % 1017,4 hPa 0,0 l/m 0 min 0 min 2,2 UV-I 186 W/m 7,7 km/h (2 Bft)
28.04.2013 11:00 8,9 C 14,6 C 69 % 1017,5 hPa 0,0 l/m 0 min 0 min 2,0 UV-I 200 W/m 10,3 km/h (2 Bft)
28.04.2013 11:02 9,0 C 15,7 C 68 % 1017,6 hPa 0,0 l/m 0 min 0 min 1,8 UV-I 181 W/m 7,7 km/h (2 Bft)
28.04.2013 11:04 9,1 C 15,7 C 66 % 1017,6 hPa 0,0 l/m 0 min 0 min 2,0 UV-I 178 W/m 5,1 km/h (1 Bft)
28.04.2013 11:06 9,1 C 15,7 C 66 % 1017,6 hPa 0,0 l/m 0 min 0 min 2,0 UV-I 144 W/m 10,3 km/h (2 Bft)
28.04.2013 11:08 9,3 C 16,2 C 68 % 1017,6 hPa 0,0 l/m 0 min 0 min 2,1 UV-I 137 W/m 5,1 km/h (1 Bft)
28.04.2013 11:10 9,4 C 16,8 C 66 % 1017,6 hPa 0,0 l/m 0 min 0 min 2,1 UV-I 127 W/m 15,4 km/h (3 Bft)
28.04.2013 11:12 9,5 C 16,8 C 66 % 1017,6 hPa 0,0 l/m 0 min 0 min 2,1 UV-I 134 W/m 7,7 km/h (2 Bft)
28.04.2013 11:14 9,6 C 16,8 C 66 % 1017,6 hPa 0,0 l/m 0 min 0 min 2,1 UV-I 139 W/m 7,7 km/h (2 Bft)
28.04.2013 11:16 9,6 C 16,2 C 65 % 1017,7 hPa 0,0 l/m 0 min 0 min 2,2 UV-I 183 W/m 0,0 km/h (0 Bft)
28.04.2013 11:18 9,7 C 15,7 C 66 % 1017,7 hPa 0,0 l/m 0 min 0 min 2,3 UV-I 236 W/m 0,0 km/h (0 Bft)
28.04.2013 11:20 9,7 C 14,6 C 65 % 1017,6 hPa 0,0 l/m 0 min 0 min 2,3 UV-I 323 W/m 2,6 km/h (1 Bft)
28.04.2013 11:22 9,8 C 13,4 C 65 % 1017,6 hPa 0,0 l/m 0 min 0 min 2,2 UV-I 330 W/m 2,6 km/h (1 Bft)
28.04.2013 11:24 9,8 C 11,8 C 65 % 1017,6 hPa 0,0 l/m 0 min 0 min 1,5 UV-I 332 W/m 7,7 km/h (2 Bft)
28.04.2013 11:26 9,8 C 11,2 C 64 % 1017,7 hPa 0,0 l/m 0 min 0 min 1,5 UV-I 329 W/m 10,3 km/h (2 Bft)
28.04.2013 11:28 9,7 C 11,2 C 63 % 1017,7 hPa 0,0 l/m 0 min 0 min 1,8 UV-I 380 W/m 2,6 km/h (1 Bft)
28.04.2013 11:30 9,8 C 11,8 C 63 % 1017,7 hPa 0,0 l/m 2 min 0 min 1,9 UV-I 429 W/m 7,7 km/h (2 Bft)
28.04.2013 11:32 9,8 C 11,8 C 62 % 1017,7 hPa 0,0 l/m 2 min 0 min 2,0 UV-I 473 W/m 0,0 km/h (0 Bft)
28.04.2013 11:34 9,8 C 12,3 C 63 % 1017,7 hPa 0,0 l/m 2 min 0 min 2,1 UV-I 471 W/m 5,1 km/h (1 Bft)
28.04.2013 11:36 9,9 C 12,3 C 62 % 1017,8 hPa 0,0 l/m 2 min 0 min 2,3 UV-I 471 W/m 7,7 km/h (2 Bft)
28.04.2013 11:38 10,1 C 12,9 C 63 % 1017,8 hPa 0,0 l/m 2 min 0 min 2,4 UV-I 752 W/m 5,1 km/h (1 Bft)
28.04.2013 11:40 10,2 C 13,4 C 61 % 1017,8 hPa 0,0 l/m 2 min 0 min 2,6 UV-I 756 W/m 2,6 km/h (1 Bft)
28.04.2013 11:42 10,3 C 15,1 C 60 % 1017,8 hPa 0,0 l/m 2 min 0 min 2,8 UV-I 872 W/m 0,0 km/h (0 Bft)
28.04.2013 11:44 10,3 C 15,1 C 61 % 1017,8 hPa 0,0 l/m 2 min 0 min 2,7 UV-I 735 W/m 2,6 km/h (1 Bft)
28.04.2013 11:46 10,4 C 14,0 C 61 % 1017,7 hPa 0,0 l/m 0 min 0 min 2,0 UV-I 394 W/m 0,0 km/h (0 Bft)
28.04.2013 11:48 10,4 C 14,6 C 62 % 1017,8 hPa 0,0 l/m 2 min 0 min 2,1 UV-I 424 W/m 0,0 km/h (0 Bft)
28.04.2013 11:50 10,4 C 14,6 C 61 % 1017,8 hPa 0,0 l/m 2 min 0 min 2,1 UV-I 473 W/m 10,3 km/h (2 Bft)
28.04.2013 11:52 10,6 C 14,6 C 61 % 1017,8 hPa 0,0 l/m 2 min 0 min 1,8 UV-I 473 W/m 2,6 km/h (1 Bft)
28.04.2013 11:54 10,6 C 13,4 C 60 % 1017,8 hPa 0,0 l/m 2 min 0 min 2,2 UV-I 489 W/m 2,6 km/h (1 Bft)
28.04.2013 11:56 10,7 C 13,4 C 59 % 1017,7 hPa 0,0 l/m 2 min 0 min 2,0 UV-I 413 W/m 0,0 km/h (0 Bft)
28.04.2013 11:58 10,6 C 13,4 C 57 % 1017,7 hPa 0,0 l/m 2 min 0 min 1,8 UV-I 413 W/m 7,7 km/h (2 Bft)
28.04.2013 12:00 10,6 C 13,4 C 57 % 1017,7 hPa 0,0 l/m 2 min 0 min 3,2 UV-I 413 W/m 15,4 km/h (3 Bft)
28.04.2013 12:02 10,6 C 15,1 C 56 % 1017,6 hPa 0,0 l/m 2 min 0 min 2,7 UV-I 932 W/m 10,3 km/h (2 Bft)
28.04.2013 12:04 10,7 C 15,7 C 57 % 1017,6 hPa 0,0 l/m 2 min 0 min 3,0 UV-I 951 W/m 12,9 km/h (3 Bft)
28.04.2013 12:06 10,8 C 15,1 C 56 % 1017,4 hPa 0,0 l/m 0 min 0 min 1,9 UV-I 350 W/m 2,6 km/h (1 Bft)
28.04.2013 12:08 10,8 C 15,7 C 58 % 1017,3 hPa 0,0 l/m 0 min 0 min 2,3 UV-I 350 W/m 0,0 km/h (0 Bft)
28.04.2013 12:10 10,9 C 16,2 C 58 % 1017,3 hPa 0,0 l/m 0 min 0 min 1,5 UV-I 350 W/m 12,9 km/h (3 Bft)
28.04.2013 12:12 10,9 C 15,1 C 58 % 1017,2 hPa 0,0 l/m 0 min 0 min 2,5 UV-I 350 W/m 12,9 km/h (3 Bft)
28.04.2013 12:14 11,0 C 15,1 C 59 % 1017,3 hPa 0,0 l/m 2 min 0 min 2,9 UV-I 780 W/m 5,1 km/h (1 Bft)
28.04.2013 12:16 11,1 C 14,6 C 58 % 1017,2 hPa 0,0 l/m 2 min 0 min 2,9 UV-I 770 W/m 12,9 km/h (3 Bft)
28.04.2013 12:18 11,1 C 15,1 C 59 % 1017,2 hPa 0,0 l/m 2 min 0 min 2,9 UV-I 768 W/m 12,9 km/h (3 Bft)
28.04.2013 12:20 11,0 C 15,7 C 59 % 1017,2 hPa 0,0 l/m 2 min 0 min 3,0 UV-I 770 W/m 10,3 km/h (2 Bft)
28.04.2013 12:22 10,9 C 16,8 C 59 % 1017,1 hPa 0,0 l/m 2 min 0 min 3,0 UV-I 766 W/m 5,1 km/h (1 Bft)
28.04.2013 12:24 11,0 C 18,4 C 60 % 1017,1 hPa 0,0 l/m 2 min 0 min 3,0 UV-I 772 W/m 7,7 km/h (2 Bft)
28.04.2013 12:26 11,0 C 17,9 C 57 % 1017,1 hPa 0,0 l/m 2 min 0 min 3,1 UV-I 782 W/m 12,9 km/h (3 Bft)
28.04.2013 12:28 11,1 C 18,4 C 57 % 1017,2 hPa 0,0 l/m 2 min 0 min 3,0 UV-I 777 W/m 12,9 km/h (3 Bft)
28.04.2013 12:30 11,1 C 17,9 C 56 % 1017,2 hPa 0,0 l/m 2 min 0 min 3,1 UV-I 777 W/m 2,6 km/h (1 Bft)
28.04.2013 12:32 11,2 C 19,6 C 58 % 1017,2 hPa 0,0 l/m 2 min 0 min 3,1 UV-I 780 W/m 0,0 km/h (0 Bft)
28.04.2013 12:34 11,3 C 18,4 C 57 % 1017,3 hPa 0,0 l/m 2 min 0 min 3,0 UV-I 780 W/m 2,6 km/h (1 Bft)
28.04.2013 12:36 11,4 C 19,0 C 57 % 1017,2 hPa 0,0 l/m 2 min 0 min 3,0 UV-I 784 W/m 0,0 km/h (0 Bft)
28.04.2013 12:38 11,4 C 19,6 C 57 % 1017,2 hPa 0,0 l/m 2 min 0 min 3,1 UV-I 802 W/m 0,0 km/h (0 Bft)
28.04.2013 12:40 11,6 C 20,1 C 55 % 1017,2 hPa 0,0 l/m 2 min 0 min 3,2 UV-I 823 W/m 7,7 km/h (2 Bft)
28.04.2013 12:42 11,6 C 19,6 C 46 % 1017,1 hPa 0,0 l/m 2 min 0 min 3,3 UV-I 847 W/m 12,9 km/h (3 Bft)
28.04.2013 12:44 11,7 C 18,4 C 47 % 1017,1 hPa 0,0 l/m 2 min 0 min 2,1 UV-I 847 W/m 10,3 km/h (2 Bft)
28.04.2013 12:46 11,7 C 17,9 C 46 % 1017,1 hPa 0,0 l/m 2 min 0 min 1,8 UV-I 935 W/m 7,7 km/h (2 Bft)
28.04.2013 12:48 11,8 C 17,9 C 51 % 1017,0 hPa 0,0 l/m 2 min 0 min 1,9 UV-I 812 W/m 0,0 km/h (0 Bft)
28.04.2013 12:50 11,9 C 16,8 C 51 % 1017,0 hPa 0,0 l/m 0 min 0 min 1,4 UV-I 360 W/m 0,0 km/h (0 Bft)
28.04.2013 12:52 11,9 C 15,1 C 50 % 1016,9 hPa 0,0 l/m 0 min 0 min 1,5 UV-I 360 W/m 5,1 km/h (1 Bft)
28.04.2013 12:54 12,0 C 14,0 C 50 % 1016,9 hPa 0,0 l/m 0 min 0 min 1,4 UV-I 299 W/m 0,0 km/h (0 Bft)
28.04.2013 12:56 12,0 C 14,0 C 50 % 1016,9 hPa 0,0 l/m 0 min 0 min 2,1 UV-I 336 W/m 7,7 km/h (2 Bft)
28.04.2013 12:58 12,0 C 14,0 C 49 % 1016,9 hPa 0,0 l/m 0 min 0 min 1,6 UV-I 352 W/m 10,3 km/h (2 Bft)
28.04.2013 13:00 11,9 C 12,9 C 48 % 1016,9 hPa 0,0 l/m 0 min 0 min 1,6 UV-I 369 W/m 7,7 km/h (2 Bft)
28.04.2013 13:02 11,8 C 12,9 C 49 % 1016,9 hPa 0,0 l/m 0 min 0 min 1,8 UV-I 424 W/m 0,0 km/h (0 Bft)
28.04.2013 13:04 11,8 C 12,9 C 52 % 1016,9 hPa 0,0 l/m 0 min 0 min 1,6 UV-I 373 W/m 2,6 km/h (1 Bft)
28.04.2013 13:06 11,8 C 13,4 C 48 % 1016,9 hPa 0,0 l/m 0 min 0 min 1,5 UV-I 373 W/m 12,9 km/h (3 Bft)
28.04.2013 13:08 11,8 C 13,4 C 46 % 1017,0 hPa 0,0 l/m 0 min 0 min 1,5 UV-I 374 W/m 10,3 km/h (2 Bft)
28.04.2013 13:10 11,7 C 13,4 C 45 % 1017,0 hPa 0,0 l/m 0 min 0 min 1,6 UV-I 415 W/m 7,7 km/h (2 Bft)
28.04.2013 13:12 11,7 C 13,4 C 45 % 1017,0 hPa 0,0 l/m 2 min 0 min 1,8 UV-I 452 W/m 0,0 km/h (0 Bft)
28.04.2013 13:14 11,8 C 14,0 C 46 % 1017,0 hPa 0,0 l/m 2 min 0 min 2,3 UV-I 573 W/m 0,0 km/h (0 Bft)
28.04.2013 13:16 11,8 C 14,6 C 45 % 1016,9 hPa 0,0 l/m 2 min 0 min 2,0 UV-I 587 W/m 10,3 km/h (2 Bft)
28.04.2013 13:18 11,9 C 14,6 C 44 % 1016,9 hPa 0,0 l/m 2 min 0 min 2,1 UV-I 587 W/m 10,3 km/h (2 Bft)
28.04.2013 13:20 11,9 C 16,2 C 46 % 1016,8 hPa 0,0 l/m 2 min 0 min 3,9 UV-I 587 W/m 7,7 km/h (2 Bft)
28.04.2013 13:22 12,1 C 17,3 C 44 % 1016,8 hPa 0,0 l/m 2 min 0 min 3,3 UV-I 979 W/m 12,9 km/h (3 Bft)
28.04.2013 13:24 12,2 C 17,3 C 45 % 1016,7 hPa 0,0 l/m 2 min 0 min 3,5 UV-I 904 W/m 10,3 km/h (2 Bft)
28.04.2013 13:26 12,3 C 16,8 C 43 % 1016,6 hPa 0,0 l/m 2 min 0 min 3,5 UV-I 898 W/m 0,0 km/h (0 Bft)
28.04.2013 13:28 12,5 C 17,9 C 48 % 1016,6 hPa 0,0 l/m 2 min 0 min 3,5 UV-I 884 W/m 0,0 km/h (0 Bft)
28.04.2013 13:30 12,7 C 18,4 C 45 % 1016,7 hPa 0,0 l/m 2 min 0 min 3,5 UV-I 919 W/m 0,0 km/h (0 Bft)
28.04.2013 13:32 12,8 C 17,3 C 47 % 1016,6 hPa 0,0 l/m 2 min 0 min 1,5 UV-I 919 W/m 10,3 km/h (2 Bft)
28.04.2013 13:34 12,9 C 15,7 C 44 % 1016,6 hPa 0,0 l/m 0 min 0 min 3,0 UV-I 318 W/m 0,0 km/h (0 Bft)
28.04.2013 13:36 13,1 C 15,1 C 46 % 1016,5 hPa 0,0 l/m 2 min 0 min 2,6 UV-I 455 W/m 7,7 km/h (2 Bft)
28.04.2013 13:38 13,2 C 15,1 C 45 % 1016,5 hPa 0,0 l/m 2 min 0 min 3,5 UV-I 895 W/m 5,1 km/h (1 Bft)
28.04.2013 13:40 13,3 C 15,1 C 45 % 1016,5 hPa 0,0 l/m 2 min 0 min 3,4 UV-I 858 W/m 18,0 km/h (3 Bft)
28.04.2013 13:42 13,4 C 15,1 C 43 % 1016,5 hPa 0,0 l/m 2 min 0 min 3,4 UV-I 886 W/m 15,4 km/h (3 Bft)
28.04.2013 13:44 13,4 C 14,6 C 45 % 1016,4 hPa 0,0 l/m 2 min 0 min 2,1 UV-I 886 W/m 20,6 km/h (4 Bft)
28.04.2013 13:46 13,4 C 14,0 C 44 % 1016,4 hPa 0,0 l/m 2 min 0 min 2,8 UV-I 886 W/m 12,9 km/h (3 Bft)
28.04.2013 13:48 13,4 C 14,6 C 45 % 1016,3 hPa 0,0 l/m 2 min 0 min 3,5 UV-I 921 W/m 15,4 km/h (3 Bft)
28.04.2013 13:50 13,4 C 14,6 C 45 % 1016,3 hPa 0,0 l/m 2 min 0 min 3,3 UV-I 833 W/m 15,4 km/h (3 Bft)
28.04.2013 13:52 13,4 C 14,0 C 42 % 1016,2 hPa 0,0 l/m 2 min 0 min 3,3 UV-I 826 W/m 12,9 km/h (3 Bft)
28.04.2013 13:54 13,4 C 14,0 C 42 % 1016,2 hPa 0,0 l/m 2 min 0 min 3,3 UV-I 826 W/m 7,7 km/h (2 Bft)
28.04.2013 13:56 13,5 C 13,4 C 43 % 1016,0 hPa 0,0 l/m 2 min 0 min 3,3 UV-I 824 W/m 2,6 km/h (1 Bft)
28.04.2013 13:58 13,6 C 14,0 C 43 % 1016,0 hPa 0,0 l/m 2 min 0 min 3,2 UV-I 823 W/m 5,1 km/h (1 Bft)
28.04.2013 14:00 13,6 C 14,0 C 42 % 1016,0 hPa 0,0 l/m 2 min 0 min 3,3 UV-I 842 W/m 2,6 km/h (1 Bft)
28.04.2013 14:02 13,7 C 14,0 C 42 % 1016,0 hPa 0,0 l/m 2 min 0 min 3,0 UV-I 889 W/m 5,1 km/h (1 Bft)
28.04.2013 14:04 13,7 C 13,4 C 41 % 1016,0 hPa 0,0 l/m 2 min 0 min 3,1 UV-I 830 W/m 12,9 km/h (3 Bft)
28.04.2013 14:06 13,7 C 12,9 C 41 % 1016,0 hPa 0,0 l/m 2 min 0 min 2,4 UV-I 452 W/m 15,4 km/h (3 Bft)
28.04.2013 14:08 13,6 C 12,3 C 40 % 1016,0 hPa 0,0 l/m 0 min 0 min 2,2 UV-I 408 W/m 12,9 km/h (3 Bft)
28.04.2013 14:10 13,4 C 12,9 C 42 % 1015,9 hPa 0,0 l/m 2 min 0 min 2,5 UV-I 533 W/m 5,1 km/h (1 Bft)
28.04.2013 14:12 13,3 C 12,3 C 42 % 1015,9 hPa 0,0 l/m 2 min 0 min 2,4 UV-I 490 W/m 18,0 km/h (3 Bft)
28.04.2013 14:14 13,3 C 12,9 C 42 % 1016,0 hPa 0,0 l/m 2 min 0 min 2,5 UV-I 703 W/m 7,7 km/h (2 Bft)
28.04.2013 14:16 13,2 C 12,9 C 43 % 1015,9 hPa 0,0 l/m 2 min 0 min 2,2 UV-I 703 W/m 12,9 km/h (3 Bft)
28.04.2013 14:18 13,2 C 13,4 C 42 % 1015,9 hPa 0,0 l/m 2 min 0 min 2,8 UV-I 780 W/m 5,1 km/h (1 Bft)
28.04.2013 14:20 13,2 C 13,4 C 41 % 1015,9 hPa 0,0 l/m 2 min 0 min 2,2 UV-I 533 W/m 5,1 km/h (1 Bft)
28.04.2013 14:22 13,2 C 13,4 C 44 % 1016,1 hPa 0,0 l/m 2 min 0 min 2,0 UV-I 466 W/m 7,7 km/h (2 Bft)
28.04.2013 14:24 13,2 C 14,6 C 45 % 1016,1 hPa 0,0 l/m 2 min 0 min 2,8 UV-I 561 W/m 5,1 km/h (1 Bft)
28.04.2013 14:26 13,2 C 14,6 C 42 % 1016,0 hPa 0,0 l/m 2 min 0 min 2,0 UV-I 561 W/m 10,3 km/h (2 Bft)
28.04.2013 14:28 13,2 C 14,0 C 41 % 1016,0 hPa 0,0 l/m 0 min 0 min 1,6 UV-I 388 W/m 2,6 km/h (1 Bft)
28.04.2013 14:30 13,3 C 14,0 C 42 % 1016,1 hPa 0,0 l/m 2 min 0 min 1,7 UV-I 431 W/m 0,0 km/h (0 Bft)
28.04.2013 14:32 13,3 C 14,0 C 43 % 1016,1 hPa 0,0 l/m 2 min 0 min 1,9 UV-I 478 W/m 0,0 km/h (0 Bft)
28.04.2013 14:34 13,3 C 14,0 C 42 % 1016,1 hPa 0,0 l/m 2 min 0 min 2,0 UV-I 490 W/m 7,7 km/h (2 Bft)
28.04.2013 14:36 13,4 C 14,6 C 42 % 1016,1 hPa 0,0 l/m 2 min 0 min 1,9 UV-I 483 W/m 0,0 km/h (0 Bft)
28.04.2013 14:38 13,4 C 14,6 C 42 % 1016,1 hPa 0,0 l/m 2 min 0 min 1,7 UV-I 478 W/m 7,7 km/h (2 Bft)
28.04.2013 14:40 13,4 C 14,6 C 41 % 1016,1 hPa 0,0 l/m 0 min 0 min 1,5 UV-I 397 W/m 12,9 km/h (3 Bft)
28.04.2013 14:42 13,4 C 14,6 C 41 % 1016,1 hPa 0,0 l/m 2 min 0 min 1,7 UV-I 443 W/m 7,7 km/h (2 Bft)
28.04.2013 14:44 13,4 C 15,1 C 43 % 1016,1 hPa 0,0 l/m 2 min 0 min 2,2 UV-I 485 W/m 0,0 km/h (0 Bft)
28.04.2013 14:46 13,5 C 15,1 C 44 % 1016,1 hPa 0,0 l/m 2 min 0 min 1,9 UV-I 508 W/m 10,3 km/h (2 Bft)
28.04.2013 14:48 13,6 C 15,1 C 43 % 1016,1 hPa 0,0 l/m 2 min 0 min 2,0 UV-I 496 W/m 10,3 km/h (2 Bft)
28.04.2013 14:50 13,6 C 14,6 C 40 % 1016,1 hPa 0,0 l/m 2 min 0 min 2,1 UV-I 538 W/m 5,1 km/h (1 Bft)
28.04.2013 14:52 13,5 C 14,6 C 41 % 1015,9 hPa 0,0 l/m 2 min 0 min 1,8 UV-I 490 W/m 0,0 km/h (0 Bft)
28.04.2013 14:54 13,5 C 14,6 C 40 % 1015,9 hPa 0,0 l/m 2 min 0 min 1,9 UV-I 522 W/m 10,3 km/h (2 Bft)
28.04.2013 14:56 13,6 C 14,6 C 41 % 1016,0 hPa 0,0 l/m 2 min 0 min 2,0 UV-I 550 W/m 10,3 km/h (2 Bft)
28.04.2013 14:58 13,5 C 14,6 C 41 % 1015,8 hPa 0,0 l/m 2 min 0 min 2,2 UV-I 675 W/m 7,7 km/h (2 Bft)
28.04.2013 15:00 13,5 C 14,6 C 40 % 1015,7 hPa 0,0 l/m 2 min 0 min 2,4 UV-I 858 W/m 7,7 km/h (2 Bft)
28.04.2013 15:02 13,5 C 14,6 C 40 % 1015,7 hPa 0,0 l/m 2 min 0 min 2,1 UV-I 619 W/m 2,6 km/h (1 Bft)
28.04.2013 15:04 13,6 C 15,1 C 42 % 1015,6 hPa 0,0 l/m 2 min 0 min 2,2 UV-I 624 W/m 5,1 km/h (1 Bft)
28.04.2013 15:06 13,7 C 15,1 C 41 % 1015,5 hPa 0,0 l/m 2 min 0 min 1,8 UV-I 526 W/m 0,0 km/h (0 Bft)
28.04.2013 15:08 13,7 C 15,1 C 41 % 1015,5 hPa 0,0 l/m 2 min 0 min 1,5 UV-I 432 W/m 10,3 km/h (2 Bft)
28.04.2013 15:10 13,7 C 15,1 C 41 % 1015,6 hPa 0,0 l/m 2 min 0 min 1,4 UV-I 450 W/m 7,7 km/h (2 Bft)
28.04.2013 15:12 13,7 C 14,6 C 40 % 1015,6 hPa 0,0 l/m 2 min 0 min 1,7 UV-I 492 W/m 12,9 km/h (3 Bft)
28.04.2013 15:14 13,6 C 14,6 C 39 % 1015,5 hPa 0,0 l/m 2 min 0 min 1,8 UV-I 561 W/m 2,6 km/h (1 Bft)
28.04.2013 15:16 13,6 C 14,6 C 40 % 1015,5 hPa 0,0 l/m 2 min 0 min 1,9 UV-I 636 W/m 7,7 km/h (2 Bft)
28.04.2013 15:18 13,6 C 14,6 C 40 % 1015,6 hPa 0,0 l/m 2 min 0 min 1,3 UV-I 406 W/m 10,3 km/h (2 Bft)
28.04.2013 15:20 13,5 C 14,6 C 41 % 1015,5 hPa 0,0 l/m 0 min 0 min 1,2 UV-I 367 W/m 7,7 km/h (2 Bft)
28.04.2013 15:22 13,4 C 15,1 C 41 % 1015,6 hPa 0,0 l/m 0 min 0 min 1,2 UV-I 374 W/m 7,7 km/h (2 Bft)
28.04.2013 15:24 13,4 C 14,6 C 40 % 1015,5 hPa 0,0 l/m 0 min 0 min 1,2 UV-I 397 W/m 7,7 km/h (2 Bft)
28.04.2013 15:26 13,4 C 14,6 C 41 % 1015,5 hPa 0,0 l/m 2 min 0 min 1,3 UV-I 413 W/m 5,1 km/h (1 Bft)
28.04.2013 15:28 13,4 C 15,1 C 43 % 1015,5 hPa 0,0 l/m 2 min 0 min 1,4 UV-I 454 W/m 5,1 km/h (1 Bft)
28.04.2013 15:30 13,4 C 15,1 C 40 % 1015,5 hPa 0,0 l/m 2 min 0 min 1,3 UV-I 434 W/m 0,0 km/h (0 Bft)
28.04.2013 15:32 13,5 C 15,1 C 40 % 1015,4 hPa 0,0 l/m 2 min 0 min 1,3 UV-I 406 W/m 10,3 km/h (2 Bft)
28.04.2013 15:34 13,6 C 15,1 C 39 % 1015,5 hPa 0,0 l/m 0 min 0 min 1,2 UV-I 374 W/m 10,3 km/h (2 Bft)
28.04.2013 15:36 13,6 C 15,1 C 40 % 1015,5 hPa 0,0 l/m 0 min 0 min 1,1 UV-I 359 W/m 0,0 km/h (0 Bft)
28.04.2013 15:38 13,7 C 15,1 C 42 % 1015,4 hPa 0,0 l/m 0 min 0 min 1,1 UV-I 362 W/m 2,6 km/h (1 Bft)
28.04.2013 15:40 13,7 C 15,1 C 42 % 1015,4 hPa 0,0 l/m 0 min 0 min 1,0 UV-I 338 W/m 2,6 km/h (1 Bft)
28.04.2013 15:42 13,7 C 15,1 C 42 % 1015,4 hPa 0,0 l/m 0 min 0 min 1,0 UV-I 332 W/m 0,0 km/h (0 Bft)
28.04.2013 15:44 13,8 C 15,1 C 44 % 1015,4 hPa 0,0 l/m 0 min 0 min 1,0 UV-I 334 W/m 2,6 km/h (1 Bft)
28.04.2013 15:46 13,8 C 14,6 C 41 % 1015,3 hPa 0,0 l/m 0 min 0 min 1,0 UV-I 355 W/m 0,0 km/h (0 Bft)
28.04.2013 15:48 13,9 C 14,6 C 40 % 1015,3 hPa 0,0 l/m 0 min 0 min 1,0 UV-I 346 W/m 0,0 km/h (0 Bft)
28.04.2013 15:50 13,9 C 14,6 C 40 % 1015,2 hPa 0,0 l/m 0 min 0 min 0,9 UV-I 350 W/m 0,0 km/h (0 Bft)
28.04.2013 15:52 13,9 C 15,1 C 41 % 1015,3 hPa 0,0 l/m 0 min 0 min 0,9 UV-I 334 W/m 10,3 km/h (2 Bft)
28.04.2013 15:54 14,0 C 14,6 C 42 % 1015,2 hPa 0,0 l/m 0 min 0 min 0,8 UV-I 316 W/m 5,1 km/h (1 Bft)
28.04.2013 15:56 14,1 C 15,1 C 41 % 1015,3 hPa 0,0 l/m 0 min 0 min 0,7 UV-I 301 W/m 10,3 km/h (2 Bft)
28.04.2013 15:58 14,0 C 14,6 C 41 % 1015,3 hPa 0,0 l/m 0 min 0 min 0,7 UV-I 285 W/m 7,7 km/h (2 Bft)
28.04.2013 16:00 14,0 C 14,6 C 39 % 1015,3 hPa 0,0 l/m 0 min 0 min 0,6 UV-I 278 W/m 12,9 km/h (3 Bft)
28.04.2013 16:02 14,0 C 14,6 C 40 % 1015,5 hPa 0,0 l/m 0 min 0 min 0,6 UV-I 279 W/m 2,6 km/h (1 Bft)
28.04.2013 16:04 13,9 C 14,6 C 41 % 1015,3 hPa 0,0 l/m 0 min 0 min 0,7 UV-I 302 W/m 7,7 km/h (2 Bft)
28.04.2013 16:06 13,9 C 14,0 C 39 % 1015,2 hPa 0,0 l/m 0 min 0 min 0,8 UV-I 329 W/m 0,0 km/h (0 Bft)
28.04.2013 16:08 13,9 C 14,6 C 39 % 1015,2 hPa 0,0 l/m 0 min 0 min 0,8 UV-I 341 W/m 2,6 km/h (1 Bft)
28.04.2013 16:10 13,9 C 14,6 C 42 % 1015,1 hPa 0,0 l/m 0 min 0 min 0,7 UV-I 309 W/m 5,1 km/h (1 Bft)
28.04.2013 16:12 13,9 C 14,6 C 40 % 1015,1 hPa 0,0 l/m 0 min 0 min 0,8 UV-I 330 W/m 5,1 km/h (1 Bft)
28.04.2013 16:14 13,9 C 14,6 C 38 % 1015,0 hPa 0,0 l/m 0 min 0 min 0,9 UV-I 355 W/m 10,3 km/h (2 Bft)
28.04.2013 16:16 13,9 C 14,6 C 40 % 1014,9 hPa 0,0 l/m 0 min 0 min 0,7 UV-I 315 W/m 18,0 km/h (3 Bft)
28.04.2013 16:18 13,8 C 14,6 C 40 % 1015,0 hPa 0,0 l/m 0 min 0 min 0,6 UV-I 290 W/m 12,9 km/h (3 Bft)
28.04.2013 16:20 13,8 C 14,0 C 39 % 1014,9 hPa 0,0 l/m 0 min 0 min 0,6 UV-I 292 W/m 5,1 km/h (1 Bft)
28.04.2013 16:22 13,8 C 14,0 C 39 % 1014,8 hPa 0,0 l/m 0 min 0 min 0,5 UV-I 269 W/m 5,1 km/h (1 Bft)
28.04.2013 16:24 13,8 C 14,0 C 41 % 1014,9 hPa 0,0 l/m 0 min 0 min 0,0 UV-I 246 W/m 15,4 km/h (3 Bft)
28.04.2013 16:26 13,7 C 14,0 C 40 % 1015,1 hPa 0,0 l/m 0 min 0 min 0,0 UV-I 236 W/m 2,6 km/h (1 Bft)
28.04.2013 16:28 13,7 C 14,0 C 40 % 1015,1 hPa 0,0 l/m 0 min 0 min 0,0 UV-I 241 W/m 2,6 km/h (1 Bft)
28.04.2013 16:30 13,7 C 14,0 C 41 % 1015,0 hPa 0,0 l/m 0 min 0 min 0,0 UV-I 237 W/m 7,7 km/h (2 Bft)
28.04.2013 16:32 13,7 C 14,0 C 41 % 1015,0 hPa 0,0 l/m 0 min 0 min 0,0 UV-I 218 W/m 10,3 km/h (2 Bft)
28.04.2013 16:34 13,7 C 14,0 C 40 % 1015,1 hPa 0,0 l/m 0 min 0 min 0,0 UV-I 214 W/m 0,0 km/h (0 Bft)
28.04.2013 16:36 13,7 C 13,4 C 40 % 1015,1 hPa 0,0 l/m 0 min 0 min 0,0 UV-I 216 W/m 0,0 km/h (0 Bft)
28.04.2013 16:38 13,7 C 13,4 C 40 % 1015,1 hPa 0,0 l/m 0 min 0 min 0,0 UV-I 218 W/m 7,7 km/h (2 Bft)
28.04.2013 16:40 13,6 C 13,4 C 40 % 1015,1 hPa 0,0 l/m 0 min 0 min 0,0 UV-I 211 W/m 0,0 km/h (0 Bft)
28.04.2013 16:42 13,6 C 13,4 C 40 % 1015,2 hPa 0,0 l/m 0 min 0 min 0,0 UV-I 206 W/m 7,7 km/h (2 Bft)
28.04.2013 16:44 13,6 C 13,4 C 42 % 1015,2 hPa 0,0 l/m 0 min 0 min 0,0 UV-I 186 W/m 7,7 km/h (2 Bft)
28.04.2013 16:46 13,5 C 13,4 C 43 % 1015,3 hPa 0,0 l/m 0 min 0 min 0,0 UV-I 176 W/m 7,7 km/h (2 Bft)
28.04.2013 16:48 13,5 C 13,4 C 42 % 1015,4 hPa 0,0 l/m 0 min 0 min 0,0 UV-I 172 W/m 7,7 km/h (2 Bft)
28.04.2013 16:50 13,4 C 12,9 C 42 % 1015,3 hPa 0,0 l/m 0 min 0 min 0,0 UV-I 190 W/m 10,3 km/h (2 Bft)
28.04.2013 16:52 13,3 C 12,9 C 42 % 1015,4 hPa 0,0 l/m 0 min 0 min 0,0 UV-I 204 W/m 7,7 km/h (2 Bft)
28.04.2013 16:54 13,3 C 12,9 C 44 % 1015,3 hPa 0,0 l/m 0 min 0 min 0,0 UV-I 199 W/m 10,3 km/h (2 Bft)
28.04.2013 16:56 13,3 C 12,9 C 44 % 1015,3 hPa 0,0 l/m 0 min 0 min 0,0 UV-I 172 W/m 2,6 km/h (1 Bft)
28.04.2013 16:58 13,3 C 12,9 C 43 % 1015,4 hPa 0,0 l/m 0 min 0 min 0,0 UV-I 162 W/m 0,0 km/h (0 Bft)
28.04.2013 17:00 13,3 C 12,9 C 43 % 1015,4 hPa 0,0 l/m 0 min 0 min 0,0 UV-I 156 W/m 10,3 km/h (2 Bft)
28.04.2013 17:02 13,3 C 12,9 C 44 % 1015,3 hPa 0,0 l/m 0 min 0 min 0,0 UV-I 151 W/m 2,6 km/h (1 Bft)
28.04.2013 17:04 13,3 C 12,9 C 44 % 1015,3 hPa 0,0 l/m 0 min 0 min 0,0 UV-I 149 W/m 2,6 km/h (1 Bft)
28.04.2013 17:06 13,2 C 12,9 C 44 % 1015,3 hPa 0,0 l/m 0 min 0 min 0,0 UV-I 144 W/m 7,7 km/h (2 Bft)
28.04.2013 17:08 13,2 C 12,9 C 45 % 1015,3 hPa 0,0 l/m 0 min 0 min 0,0 UV-I 137 W/m 12,9 km/h (3 Bft)
28.04.2013 17:10 13,2 C 12,3 C 45 % 1015,2 hPa 0,0 l/m 0 min 0 min 0,0 UV-I 135 W/m 7,7 km/h (2 Bft)
28.04.2013 17:12 13,1 C 12,3 C 45 % 1015,2 hPa 0,0 l/m 0 min 0 min 0,0 UV-I 134 W/m 10,3 km/h (2 Bft)
28.04.2013 17:14 13,1 C 12,3 C 46 % 1015,2 hPa 0,0 l/m 0 min 0 min 0,0 UV-I 132 W/m 10,3 km/h (2 Bft)
28.04.2013 17:16 13,0 C 12,3 C 46 % 1015,2 hPa 0,0 l/m 0 min 0 min 0,0 UV-I 118 W/m 10,3 km/h (2 Bft)
28.04.2013 17:18 13,0 C 12,3 C 47 % 1015,1 hPa 0,0 l/m 0 min 0 min 0,0 UV-I 116 W/m 0,0 km/h (0 Bft)
28.04.2013 17:20 13,0 C 12,3 C 47 % 1015,0 hPa 0,0 l/m 0 min 0 min 0,0 UV-I 134 W/m 2,6 km/h (1 Bft)
28.04.2013 17:22 13,0 C 12,3 C 47 % 1015,1 hPa 0,0 l/m 0 min 0 min 0,0 UV-I 127 W/m 5,1 km/h (1 Bft)
28.04.2013 17:24 12,9 C 12,3 C 45 % 1015,0 hPa 0,0 l/m 0 min 0 min 0,0 UV-I 120 W/m 7,7 km/h (2 Bft)
28.04.2013 17:26 12,9 C 11,8 C 45 % 1015,0 hPa 0,0 l/m 0 min 0 min 0,0 UV-I 109 W/m 10,3 km/h (2 Bft)
28.04.2013 17:28 12,8 C 11,8 C 46 % 1015,1 hPa 0,0 l/m 0 min 0 min 0,0 UV-I 113 W/m 0,0 km/h (0 Bft)
28.04.2013 17:30 12,8 C 11,8 C 47 % 1015,0 hPa 0,0 l/m 0 min 0 min 0,0 UV-I 111 W/m 2,6 km/h (1 Bft)
28.04.2013 17:32 12,8 C 12,3 C 47 % 1014,9 hPa 0,0 l/m 0 min 0 min 0,0 UV-I 109 W/m 0,0 km/h (0 Bft)
28.04.2013 17:34 12,8 C 11,8 C 47 % 1014,9 hPa 0,0 l/m 0 min 0 min 0,0 UV-I 102 W/m 7,7 km/h (2 Bft)
28.04.2013 17:36 12,8 C 11,8 C 46 % 1014,9 hPa 0,0 l/m 0 min 0 min 0,0 UV-I 95 W/m 7,7 km/h (2 Bft)
28.04.2013 17:38 12,7 C 11,8 C 47 % 1014,9 hPa 0,0 l/m 0 min 0 min 0,0 UV-I 88 W/m 5,1 km/h (1 Bft)
28.04.2013 17:40 12,7 C 11,8 C 47 % 1015,0 hPa 0,0 l/m 0 min 0 min 0,0 UV-I 70 W/m 2,6 km/h (1 Bft)
28.04.2013 17:42 12,7 C 11,8 C 47 % 1015,0 hPa 0,0 l/m 0 min 0 min 0,0 UV-I 90 W/m 7,7 km/h (2 Bft)
28.04.2013 17:44 12,6 C 11,8 C 47 % 1015,0 hPa 0,0 l/m 0 min 0 min 0,0 UV-I 88 W/m 0,0 km/h (0 Bft)
28.04.2013 17:46 12,6 C 11,8 C 47 % 1014,9 hPa 0,0 l/m 0 min 0 min 0,0 UV-I 84 W/m 0,0 km/h (0 Bft)
28.04.2013 17:48 12,6 C 11,8 C 48 % 1014,9 hPa 0,0 l/m 0 min 0 min 0,0 UV-I 86 W/m 2,6 km/h (1 Bft)
28.04.2013 17:50 12,6 C 11,8 C 47 % 1014,9 hPa 0,0 l/m 0 min 0 min 0,0 UV-I 86 W/m 2,6 km/h (1 Bft)
28.04.2013 17:52 12,6 C 11,8 C 48 % 1014,9 hPa 0,0 l/m 0 min 0 min 0,0 UV-I 86 W/m 0,0 km/h (0 Bft)
28.04.2013 17:54 12,5 C 11,8 C 49 % 1014,9 hPa 0,0 l/m 0 min 0 min 0,0 UV-I 95 W/m 0,0 km/h (0 Bft)
28.04.2013 17:56 12,5 C 11,8 C 48 % 1015,0 hPa 0,0 l/m 0 min 0 min 0,0 UV-I 91 W/m 0,0 km/h (0 Bft)
28.04.2013 17:58 12,4 C 11,2 C 48 % 1015,0 hPa 0,0 l/m 0 min 0 min 0,0 UV-I 88 W/m 7,7 km/h (2 Bft)
28.04.2013 18:00 12,4 C 11,2 C 49 % 1014,9 hPa 0,0 l/m 0 min 0 min 0,0 UV-I 83 W/m 10,3 km/h (2 Bft)
28.04.2013 18:02 12,4 C 11,2 C 49 % 1014,8 hPa 0,0 l/m 0 min 0 min 0,0 UV-I 79 W/m 5,1 km/h (1 Bft)
28.04.2013 18:04 12,3 C 11,2 C 49 % 1014,8 hPa 0,0 l/m 0 min 0 min 0,0 UV-I 72 W/m 5,1 km/h (1 Bft)
28.04.2013 18:06 12,3 C 11,2 C 49 % 1014,9 hPa 0,0 l/m 0 min 0 min 0,0 UV-I 58 W/m 2,6 km/h (1 Bft)
28.04.2013 18:08 12,3 C 11,2 C 49 % 1015,0 hPa 0,0 l/m 0 min 0 min 0,0 UV-I 53 W/m 5,1 km/h (1 Bft)
28.04.2013 18:10 12,2 C 11,2 C 49 % 1015,1 hPa 0,0 l/m 0 min 0 min 0,0 UV-I 49 W/m 2,6 km/h (1 Bft)
28.04.2013 18:12 12,2 C 11,2 C 50 % 1015,2 hPa 0,0 l/m 0 min 0 min 0,0 UV-I 42 W/m 0,0 km/h (0 Bft)
28.04.2013 18:14 12,2 C 10,7 C 50 % 1015,2 hPa 0,0 l/m 0 min 0 min 0,0 UV-I 44 W/m 15,4 km/h (3 Bft)
28.04.2013 18:16 12,1 C 10,7 C 51 % 1015,2 hPa 0,0 l/m 0 min 0 min 0,0 UV-I 39 W/m 2,6 km/h (1 Bft)
28.04.2013 18:18 12,0 C 10,7 C 51 % 1015,2 hPa 0,0 l/m 0 min 0 min 0,0 UV-I 33 W/m 0,0 km/h (0 Bft)
28.04.2013 18:20 12,0 C 10,7 C 51 % 1015,3 hPa 0,0 l/m 0 min 0 min 0,0 UV-I 37 W/m 0,0 km/h (0 Bft)
28.04.2013 18:22 11,9 C 10,7 C 51 % 1015,3 hPa 0,0 l/m 0 min 0 min 0,0 UV-I 37 W/m 10,3 km/h (2 Bft)
28.04.2013 18:24 11,9 C 10,7 C 52 % 1015,2 hPa 0,0 l/m 0 min 0 min 0,0 UV-I 35 W/m 2,6 km/h (1 Bft)
28.04.2013 18:26 11,8 C 10,7 C 52 % 1015,2 hPa 0,0 l/m 0 min 0 min 0,0 UV-I 35 W/m 10,3 km/h (2 Bft)
28.04.2013 18:28 11,8 C 10,7 C 53 % 1015,2 hPa 0,0 l/m 0 min 0 min 0,0 UV-I 35 W/m 2,6 km/h (1 Bft)
28.04.2013 18:30 11,8 C 10,7 C 54 % 1015,2 hPa 0,0 l/m 0 min 0 min 0,0 UV-I 32 W/m 2,6 km/h (1 Bft)
28.04.2013 18:32 11,7 C 10,7 C 53 % 1015,3 hPa 0,0 l/m 0 min 0 min 0,0 UV-I 30 W/m 10,3 km/h (2 Bft)
28.04.2013 18:34 11,7 C 10,1 C 54 % 1015,3 hPa 0,0 l/m 0 min 0 min 0,0 UV-I 30 W/m 12,9 km/h (3 Bft)
28.04.2013 18:36 11,6 C 10,1 C 54 % 1015,3 hPa 0,0 l/m 0 min 0 min 0,0 UV-I 30 W/m 7,7 km/h (2 Bft)
28.04.2013 18:38 11,6 C 10,1 C 54 % 1015,3 hPa 0,0 l/m 0 min 0 min 0,0 UV-I 26 W/m 5,1 km/h (1 Bft)
28.04.2013 18:40 11,6 C 10,1 C 54 % 1015,3 hPa 0,0 l/m 0 min 0 min 0,0 UV-I 26 W/m 5,1 km/h (1 Bft)
28.04.2013 18:42 11,5 C 10,1 C 55 % 1015,2 hPa 0,0 l/m 0 min 0 min 0,0 UV-I 25 W/m 2,6 km/h (1 Bft)
28.04.2013 18:44 11,5 C 10,1 C 55 % 1015,2 hPa 0,0 l/m 0 min 0 min 0,0 UV-I 25 W/m 0,0 km/h (0 Bft)
28.04.2013 18:46 11,4 C 10,1 C 55 % 1015,2 hPa 0,0 l/m 0 min 0 min 0,0 UV-I 21 W/m 0,0 km/h (0 Bft)
28.04.2013 18:48 11,4 C 10,1 C 55 % 1015,2 hPa 0,0 l/m 0 min 0 min 0,0 UV-I 18 W/m 0,0 km/h (0 Bft)
28.04.2013 18:50 11,4 C 10,1 C 56 % 1015,1 hPa 0,0 l/m 0 min 0 min 0,0 UV-I 18 W/m 0,0 km/h (0 Bft)
28.04.2013 18:52 11,4 C 10,1 C 56 % 1015,1 hPa 0,0 l/m 0 min 0 min 0,0 UV-I 25 W/m 5,1 km/h (1 Bft)
28.04.2013 18:54 11,4 C 10,1 C 57 % 1015,1 hPa 0,0 l/m 0 min 0 min 0,0 UV-I 25 W/m 0,0 km/h (0 Bft)
28.04.2013 18:56 11,3 C 10,1 C 57 % 1015,2 hPa 0,0 l/m 0 min 0 min 0,0 UV-I 25 W/m 7,7 km/h (2 Bft)
28.04.2013 18:58 11,3 C 10,1 C 58 % 1015,1 hPa 0,0 l/m 0 min 0 min 0,0 UV-I 28 W/m 5,1 km/h (1 Bft)
28.04.2013 19:00 11,3 C 10,1 C 58 % 1015,1 hPa 0,0 l/m 0 min 0 min 0,0 UV-I 25 W/m 12,9 km/h (3 Bft)
28.04.2013 19:02 11,3 C 10,1 C 59 % 1015,1 hPa 0,0 l/m 0 min 0 min 0,0 UV-I 25 W/m 2,6 km/h (1 Bft)
28.04.2013 19:04 11,2 C 10,1 C 59 % 1015,1 hPa 0,0 l/m 0 min 0 min 0,0 UV-I 26 W/m 5,1 km/h (1 Bft)
28.04.2013 19:06 11,2 C 10,1 C 59 % 1015,1 hPa 0,0 l/m 0 min 0 min 0,0 UV-I 33 W/m 2,6 km/h (1 Bft)
28.04.2013 19:08 11,2 C 10,1 C 59 % 1015,1 hPa 0,0 l/m 0 min 2 min 0,0 UV-I 37 W/m 10,3 km/h (2 Bft)
28.04.2013 19:10 11,2 C 10,1 C 59 % 1015,1 hPa 0,0 l/m 0 min 0 min 0,0 UV-I 40 W/m 2,6 km/h (1 Bft)
28.04.2013 19:12 11,2 C 10,1 C 59 % 1015,1 hPa 0,0 l/m 0 min 0 min 0,0 UV-I 47 W/m 5,1 km/h (1 Bft)
28.04.2013 19:14 11,2 C 10,1 C 60 % 1015,1 hPa 0,0 l/m 0 min 0 min 0,0 UV-I 46 W/m 7,7 km/h (2 Bft)
28.04.2013 19:16 11,1 C 10,1 C 60 % 1015,1 hPa 0,0 l/m 0 min 0 min 0,0 UV-I 42 W/m 2,6 km/h (1 Bft)
28.04.2013 19:18 11,1 C 10,1 C 61 % 1015,1 hPa 0,0 l/m 0 min 2 min 0,0 UV-I 44 W/m 7,7 km/h (2 Bft)
28.04.2013 19:20 11,1 C 10,1 C 62 % 1015,2 hPa 0,0 l/m 0 min 0 min 0,0 UV-I 46 W/m 7,7 km/h (2 Bft)
28.04.2013 19:22 11,1 C 10,1 C 63 % 1015,3 hPa 0,0 l/m 0 min 0 min 0,0 UV-I 42 W/m 2,6 km/h (1 Bft)
28.04.2013 19:24 11,1 C 9,6 C 63 % 1015,3 hPa 0,0 l/m 0 min 2 min 0,0 UV-I 33 W/m 0,0 km/h (0 Bft)
28.04.2013 19:26 11,1 C 9,6 C 65 % 1015,2 hPa 0,0 l/m 0 min 0 min 0,0 UV-I 30 W/m 2,6 km/h (1 Bft)
28.04.2013 19:28 11,0 C 9,6 C 66 % 1015,1 hPa 0,0 l/m 0 min 0 min 0,0 UV-I 30 W/m 2,6 km/h (1 Bft)
28.04.2013 19:30 10,9 C 9,6 C 66 % 1015,1 hPa 0,0 l/m 0 min 0 min 0,0 UV-I 32 W/m 2,6 km/h (1 Bft)
28.04.2013 19:32 10,9 C 9,6 C 67 % 1015,0 hPa 0,0 l/m 0 min 0 min 0,0 UV-I 33 W/m 5,1 km/h (1 Bft)
28.04.2013 19:34 10,8 C 9,6 C 68 % 1015,0 hPa 0,0 l/m 0 min 0 min 0,0 UV-I 35 W/m 2,6 km/h (1 Bft)
28.04.2013 19:36 10,8 C 9,6 C 68 % 1014,9 hPa 0,0 l/m 0 min 0 min 0,0 UV-I 39 W/m 5,1 km/h (1 Bft)
28.04.2013 19:38 10,8 C 9,6 C 69 % 1015,0 hPa 0,0 l/m 0 min 0 min 0,0 UV-I 46 W/m 0,0 km/h (0 Bft)
28.04.2013 19:40 10,8 C 9,6 C 69 % 1014,9 hPa 0,0 l/m 0 min 2 min 0,0 UV-I 49 W/m 2,6 km/h (1 Bft)
28.04.2013 19:42 10,7 C 9,6 C 69 % 1014,9 hPa 0,0 l/m 0 min 0 min 0,0 UV-I 58 W/m 0,0 km/h (0 Bft)
28.04.2013 19:44 10,7 C 9,6 C 69 % 1014,9 hPa 0,0 l/m 0 min 0 min 0,0 UV-I 56 W/m 0,0 km/h (0 Bft)
28.04.2013 19:46 10,7 C 9,6 C 70 % 1014,9 hPa 0,0 l/m 0 min 0 min 0,0 UV-I 53 W/m 0,0 km/h (0 Bft)
28.04.2013 19:48 10,7 C 9,6 C 70 % 1014,9 hPa 0,0 l/m 0 min 0 min 0,0 UV-I 49 W/m 0,0 km/h (0 Bft)
28.04.2013 19:50 10,7 C 9,6 C 70 % 1014,9 hPa 0,0 l/m 0 min 0 min 0,0 UV-I 44 W/m 2,6 km/h (1 Bft)
28.04.2013 19:52 10,7 C 9,6 C 70 % 1014,9 hPa 0,0 l/m 0 min 0 min 0,0 UV-I 42 W/m 0,0 km/h (0 Bft)
28.04.2013 19:54 10,7 C 9,6 C 70 % 1014,9 hPa 0,0 l/m 0 min 0 min 0,0 UV-I 39 W/m 0,0 km/h (0 Bft)
28.04.2013 19:56 10,7 C 9,6 C 70 % 1014,8 hPa 0,0 l/m 0 min 0 min 0,0 UV-I 40 W/m 2,6 km/h (1 Bft)
28.04.2013 19:58 10,7 C 9,6 C 70 % 1014,9 hPa 0,0 l/m 0 min 0 min 0,0 UV-I 39 W/m 0,0 km/h (0 Bft)
28.04.2013 20:00 10,7 C 9,6 C 70 % 1014,9 hPa 0,0 l/m 0 min 0 min 0,0 UV-I 40 W/m 0,0 km/h (0 Bft)
28.04.2013 20:02 10,6 C 9,6 C 70 % 1014,9 hPa 0,0 l/m 0 min 0 min 0,0 UV-I 42 W/m 0,0 km/h (0 Bft)
28.04.2013 20:04 10,6 C 9,6 C 70 % 1014,7 hPa 0,0 l/m 0 min 0 min 0,0 UV-I 40 W/m 7,7 km/h (2 Bft)
28.04.2013 20:06 10,6 C 9,6 C 70 % 1014,7 hPa 0,0 l/m 0 min 0 min 0,0 UV-I 39 W/m 0,0 km/h (0 Bft)
28.04.2013 20:08 10,6 C 9,6 C 70 % 1014,8 hPa 0,0 l/m 0 min 0 min 0,0 UV-I 32 W/m 2,6 km/h (1 Bft)
28.04.2013 20:10 10,6 C 9,6 C 71 % 1014,6 hPa 0,0 l/m 0 min 0 min 0,0 UV-I 26 W/m 0,0 km/h (0 Bft)
28.04.2013 20:12 10,6 C 9,6 C 71 % 1014,7 hPa 0,0 l/m 0 min 0 min 0,0 UV-I 25 W/m 0,0 km/h (0 Bft)
28.04.2013 20:14 10,6 C 9,6 C 71 % 1014,6 hPa 0,0 l/m 0 min 0 min 0,0 UV-I 25 W/m 0,0 km/h (0 Bft)
28.04.2013 20:16 10,6 C 9,6 C 71 % 1014,6 hPa 0,0 l/m 0 min 0 min 0,0 UV-I 23 W/m 0,0 km/h (0 Bft)
28.04.2013 20:18 10,6 C 9,6 C 71 % 1014,7 hPa 0,0 l/m 0 min 0 min 0,0 UV-I 23 W/m 0,0 km/h (0 Bft)
28.04.2013 20:20 10,6 C 9,6 C 71 % 1014,6 hPa 0,0 l/m 0 min 0 min 0,0 UV-I 21 W/m 0,0 km/h (0 Bft)
28.04.2013 20:22 10,6 C 9,6 C 71 % 1014,7 hPa 0,0 l/m 0 min 0 min 0,0 UV-I 23 W/m 0,0 km/h (0 Bft)
28.04.2013 20:24 10,6 C 9,6 C 71 % 1014,7 hPa 0,0 l/m 0 min 0 min 0,0 UV-I 19 W/m 0,0 km/h (0 Bft)
28.04.2013 20:26 10,6 C 9,6 C 71 % 1014,8 hPa 0,0 l/m 0 min 0 min 0,0 UV-I 16 W/m 0,0 km/h (0 Bft)
28.04.2013 20:28 10,6 C 9,6 C 71 % 1014,7 hPa 0,0 l/m 0 min 0 min 0,0 UV-I 12 W/m 0,0 km/h (0 Bft)
28.04.2013 20:30 10,6 C 9,6 C 71 % 1014,8 hPa 0,0 l/m 0 min 0 min 0,0 UV-I 12 W/m 5,1 km/h (1 Bft)
28.04.2013 20:32 10,6 C 9,6 C 71 % 1014,7 hPa 0,0 l/m 0 min 0 min 0,0 UV-I 11 W/m 0,0 km/h (0 Bft)
28.04.2013 20:34 10,6 C 9,6 C 71 % 1014,7 hPa 0,0 l/m 0 min 0 min 0,0 UV-I 11 W/m 0,0 km/h (0 Bft)
28.04.2013 20:36 10,6 C 9,6 C 71 % 1014,7 hPa 0,0 l/m 0 min 0 min 0,0 UV-I 9 W/m 0,0 km/h (0 Bft)
28.04.2013 20:38 10,6 C 9,6 C 71 % 1014,7 hPa 0,0 l/m 0 min 0 min 0,0 UV-I 9 W/m 0,0 km/h (0 Bft)
28.04.2013 20:40 10,5 C 9,6 C 71 % 1014,8 hPa 0,0 l/m 0 min 0 min 0,0 UV-I 9 W/m 0,0 km/h (0 Bft)
28.04.2013 20:42 10,5 C 9,6 C 71 % 1014,9 hPa 0,0 l/m 0 min 0 min 0,0 UV-I 9 W/m 7,7 km/h (2 Bft)
28.04.2013 20:44 10,5 C 9,6 C 71 % 1014,9 hPa 0,0 l/m 0 min 0 min 0,0 UV-I 7 W/m 2,6 km/h (1 Bft)
28.04.2013 20:46 10,4 C 9,0 C 71 % 1014,9 hPa 0,0 l/m 0 min 0 min 0,0 UV-I 7 W/m 7,7 km/h (2 Bft)
28.04.2013 20:48 10,4 C 9,0 C 71 % 1014,8 hPa 0,0 l/m 0 min 0 min 0,0 UV-I 7 W/m 0,0 km/h (0 Bft)
28.04.2013 20:50 10,4 C 9,0 C 71 % 1014,8 hPa 0,0 l/m 0 min 0 min 0,0 UV-I 5 W/m 2,6 km/h (1 Bft)
28.04.2013 20:52 10,4 C 9,0 C 71 % 1014,8 hPa 0,0 l/m 0 min 0 min 0,0 UV-I 0 W/m 7,7 km/h (2 Bft)
28.04.2013 20:54 10,4 C 9,0 C 72 % 1014,7 hPa 0,0 l/m 0 min 0 min 0,0 UV-I 0 W/m 0,0 km/h (0 Bft)
28.04.2013 20:56 10,4 C 9,0 C 72 % 1014,7 hPa 0,0 l/m 0 min 0 min 0,0 UV-I 0 W/m 10,3 km/h (2 Bft)
28.04.2013 20:58 10,4 C 9,0 C 72 % 1014,7 hPa 0,0 l/m 0 min 0 min 0,0 UV-I 0 W/m 0,0 km/h (0 Bft)
28.04.2013 21:00 10,4 C 9,0 C 72 % 1014,7 hPa 0,0 l/m 0 min 0 min 0,0 UV-I 0 W/m 0,0 km/h (0 Bft)
28.04.2013 21:02 10,4 C 9,0 C 72 % 1014,6 hPa 0,0 l/m 0 min 0 min 0,0 UV-I 0 W/m 0,0 km/h (0 Bft)
28.04.2013 21:04 10,3 C 9,0 C 72 % 1014,6 hPa 0,0 l/m 0 min 0 min 0,0 UV-I 0 W/m 0,0 km/h (0 Bft)
28.04.2013 21:06 10,3 C 9,0 C 72 % 1014,6 hPa 0,0 l/m 0 min 0 min 0,0 UV-I 0 W/m 0,0 km/h (0 Bft)
28.04.2013 21:08 10,3 C 9,0 C 72 % 1014,6 hPa 0,0 l/m 0 min 0 min 0,0 UV-I 0 W/m 0,0 km/h (0 Bft)
28.04.2013 21:10 10,3 C 9,0 C 72 % 1014,7 hPa 0,0 l/m 0 min 0 min 0,0 UV-I 0 W/m 0,0 km/h (0 Bft)
28.04.2013 21:12 10,3 C 9,0 C 72 % 1014,6 hPa 0,0 l/m 0 min 0 min 0,0 UV-I 0 W/m 0,0 km/h (0 Bft)
28.04.2013 21:14 10,3 C 9,0 C 72 % 1014,6 hPa 0,0 l/m 0 min 0 min 0,0 UV-I 0 W/m 0,0 km/h (0 Bft)
28.04.2013 21:16 10,3 C 9,0 C 72 % 1014,6 hPa 0,0 l/m 0 min 0 min 0,0 UV-I 0 W/m 0,0 km/h (0 Bft)
28.04.2013 21:18 10,3 C 9,0 C 73 % 1014,6 hPa 0,0 l/m 0 min 0 min 0,0 UV-I 0 W/m 0,0 km/h (0 Bft)
28.04.2013 21:20 10,3 C 9,0 C 73 % 1014,6 hPa 0,0 l/m 0 min 0 min 0,0 UV-I 0 W/m 0,0 km/h (0 Bft)
28.04.2013 21:22 10,3 C 9,0 C 73 % 1014,6 hPa 0,0 l/m 0 min 0 min 0,0 UV-I 0 W/m 5,1 km/h (1 Bft)
28.04.2013 21:24 10,3 C 9,0 C 73 % 1014,6 hPa 0,0 l/m 0 min 0 min 0,0 UV-I 0 W/m 0,0 km/h (0 Bft)
28.04.2013 21:26 10,2 C 9,0 C 73 % 1014,5 hPa 0,0 l/m 0 min 0 min 0,0 UV-I 0 W/m 0,0 km/h (0 Bft)
28.04.2013 21:28 10,2 C 9,0 C 73 % 1014,5 hPa 0,0 l/m 0 min 0 min 0,0 UV-I 0 W/m 5,1 km/h (1 Bft)
28.04.2013 21:30 10,2 C 9,0 C 73 % 1014,5 hPa 0,0 l/m 0 min 0 min 0,0 UV-I 0 W/m 5,1 km/h (1 Bft)
28.04.2013 21:32 10,2 C 9,0 C 74 % 1014,5 hPa 0,0 l/m 0 min 0 min 0,0 UV-I 0 W/m 0,0 km/h (0 Bft)
28.04.2013 21:34 10,2 C 9,0 C 74 % 1014,5 hPa 0,0 l/m 0 min 0 min 0,0 UV-I 0 W/m 5,1 km/h (1 Bft)
28.04.2013 21:36 10,2 C 9,0 C 74 % 1014,6 hPa 0,0 l/m 0 min 0 min 0,0 UV-I 0 W/m 0,0 km/h (0 Bft)
28.04.2013 21:38 10,2 C 9,0 C 74 % 1014,5 hPa 0,0 l/m 0 min 0 min 0,0 UV-I 0 W/m 0,0 km/h (0 Bft)
28.04.2013 21:40 10,2 C 9,0 C 74 % 1014,5 hPa 0,0 l/m 0 min 0 min 0,0 UV-I 0 W/m 0,0 km/h (0 Bft)
28.04.2013 21:42 10,2 C 9,0 C 74 % 1014,5 hPa 0,0 l/m 0 min 0 min 0,0 UV-I 0 W/m 0,0 km/h (0 Bft)
28.04.2013 21:44 10,2 C 9,0 C 74 % 1014,5 hPa 0,0 l/m 0 min 0 min 0,0 UV-I 0 W/m 0,0 km/h (0 Bft)
28.04.2013 21:46 10,1 C 9,0 C 74 % 1014,5 hPa 0,0 l/m 0 min 0 min 0,0 UV-I 0 W/m 0,0 km/h (0 Bft)
28.04.2013 21:48 10,1 C 9,0 C 74 % 1014,5 hPa 0,0 l/m 0 min 0 min 0,0 UV-I 0 W/m 0,0 km/h (0 Bft)
28.04.2013 21:50 10,1 C 8,4 C 74 % 1014,4 hPa 0,0 l/m 0 min 0 min 0,0 UV-I 0 W/m 10,3 km/h (2 Bft)
28.04.2013 21:52 10,1 C 8,4 C 74 % 1014,4 hPa 0,0 l/m 0 min 0 min 0,0 UV-I 0 W/m 10,3 km/h (2 Bft)
28.04.2013 21:54 10,1 C 8,4 C 74 % 1014,3 hPa 0,0 l/m 0 min 0 min 0,0 UV-I 0 W/m 10,3 km/h (2 Bft)
28.04.2013 21:56 10,1 C 8,4 C 74 % 1014,3 hPa 0,0 l/m 0 min 0 min 0,0 UV-I 0 W/m 12,9 km/h (3 Bft)
28.04.2013 21:58 10,0 C 8,4 C 74 % 1014,3 hPa 0,0 l/m 0 min 0 min 0,0 UV-I 0 W/m 10,3 km/h (2 Bft)
28.04.2013 22:00 10,0 C 8,4 C 74 % 1014,4 hPa 0,0 l/m 0 min 0 min 0,0 UV-I 0 W/m 2,6 km/h (1 Bft)
28.04.2013 22:02 9,9 C 8,4 C 74 % 1014,5 hPa 0,0 l/m 0 min 0 min 0,0 UV-I 0 W/m 0,0 km/h (0 Bft)
28.04.2013 22:04 9,9 C 8,4 C 74 % 1014,5 hPa 0,0 l/m 0 min 0 min 0,0 UV-I 0 W/m 0,0 km/h (0 Bft)
28.04.2013 22:06 9,9 C 7,9 C 74 % 1014,5 hPa 0,0 l/m 0 min 0 min 0,0 UV-I 0 W/m 0,0 km/h (0 Bft)
28.04.2013 22:08 9,9 C 8,4 C 74 % 1014,5 hPa 0,0 l/m 0 min 0 min 0,0 UV-I 0 W/m 10,3 km/h (2 Bft)
28.04.2013 22:10 9,8 C 7,9 C 75 % 1014,5 hPa 0,0 l/m 0 min 0 min 0,0 UV-I 0 W/m 5,1 km/h (1 Bft)
28.04.2013 22:12 9,8 C 7,9 C 74 % 1014,6 hPa 0,0 l/m 0 min 0 min 0,0 UV-I 0 W/m 0,0 km/h (0 Bft)
28.04.2013 22:14 9,8 C 7,9 C 75 % 1014,5 hPa 0,0 l/m 0 min 0 min 0,0 UV-I 0 W/m 0,0 km/h (0 Bft)
28.04.2013 22:16 9,8 C 7,9 C 75 % 1014,6 hPa 0,0 l/m 0 min 0 min 0,0 UV-I 0 W/m 0,0 km/h (0 Bft)
28.04.2013 22:18 9,8 C 7,9 C 75 % 1014,6 hPa 0,0 l/m 0 min 0 min 0,0 UV-I 0 W/m 0,0 km/h (0 Bft)
28.04.2013 22:20 9,7 C 7,9 C 75 % 1014,6 hPa 0,0 l/m 0 min 0 min 0,0 UV-I 0 W/m 0,0 km/h (0 Bft)
28.04.2013 22:22 9,7 C 7,9 C 75 % 1014,6 hPa 0,0 l/m 0 min 0 min 0,0 UV-I 0 W/m 0,0 km/h (0 Bft)
28.04.2013 22:24 9,7 C 7,9 C 75 % 1014,6 hPa 0,0 l/m 0 min 0 min 0,0 UV-I 0 W/m 0,0 km/h (0 Bft)
28.04.2013 22:26 9,7 C 7,3 C 75 % 1014,6 hPa 0,0 l/m 0 min 0 min 0,0 UV-I 0 W/m 5,1 km/h (1 Bft)
28.04.2013 22:28 9,7 C 7,3 C 75 % 1014,6 hPa 0,0 l/m 0 min 0 min 0,0 UV-I 0 W/m 2,6 km/h (1 Bft)
28.04.2013 22:30 9,6 C 7,3 C 75 % 1014,6 hPa 0,0 l/m 0 min 0 min 0,0 UV-I 0 W/m 7,7 km/h (2 Bft)
28.04.2013 22:32 9,6 C 7,3 C 76 % 1014,6 hPa 0,0 l/m 0 min 0 min 0,0 UV-I 0 W/m 7,7 km/h (2 Bft)
28.04.2013 22:34 9,6 C 7,3 C 76 % 1014,5 hPa 0,0 l/m 0 min 0 min 0,0 UV-I 0 W/m 0,0 km/h (0 Bft)
28.04.2013 22:36 9,5 C 7,3 C 76 % 1014,5 hPa 0,0 l/m 0 min 0 min 0,0 UV-I 0 W/m 2,6 km/h (1 Bft)
28.04.2013 22:38 9,4 C 7,3 C 76 % 1014,5 hPa 0,0 l/m 0 min 0 min 0,0 UV-I 0 W/m 0,0 km/h (0 Bft)
28.04.2013 22:40 9,4 C 7,3 C 76 % 1014,5 hPa 0,0 l/m 0 min 0 min 0,0 UV-I 0 W/m 0,0 km/h (0 Bft)
28.04.2013 22:42 9,4 C 7,3 C 77 % 1014,6 hPa 0,0 l/m 0 min 0 min 0,0 UV-I 0 W/m 0,0 km/h (0 Bft)
28.04.2013 22:44 9,3 C 6,8 C 77 % 1014,7 hPa 0,0 l/m 0 min 0 min 0,0 UV-I 0 W/m 0,0 km/h (0 Bft)
28.04.2013 22:46 9,3 C 6,8 C 77 % 1014,7 hPa 0,0 l/m 0 min 0 min 0,0 UV-I 0 W/m 0,0 km/h (0 Bft)
28.04.2013 22:48 9,3 C 6,8 C 77 % 1014,6 hPa 0,0 l/m 0 min 0 min 0,0 UV-I 0 W/m 0,0 km/h (0 Bft)
28.04.2013 22:50 9,3 C 6,8 C 77 % 1014,8 hPa 0,0 l/m 0 min 0 min 0,0 UV-I 0 W/m 0,0 km/h (0 Bft)
28.04.2013 22:52 9,2 C 6,8 C 77 % 1014,7 hPa 0,0 l/m 0 min 0 min 0,0 UV-I 0 W/m 0,0 km/h (0 Bft)
28.04.2013 22:54 9,2 C 6,8 C 77 % 1014,7 hPa 0,0 l/m 0 min 0 min 0,0 UV-I 0 W/m 0,0 km/h (0 Bft)
28.04.2013 22:56 9,1 C 6,8 C 77 % 1014,7 hPa 0,0 l/m 0 min 0 min 0,0 UV-I 0 W/m 2,6 km/h (1 Bft)
28.04.2013 22:58 9,1 C 6,8 C 78 % 1014,8 hPa 0,0 l/m 0 min 0 min 0,0 UV-I 0 W/m 0,0 km/h (0 Bft)
28.04.2013 23:00 9,0 C 6,8 C 78 % 1014,8 hPa 0,0 l/m 0 min 0 min 0,0 UV-I 0 W/m 0,0 km/h (0 Bft)
28.04.2013 23:02 9,0 C 6,8 C 78 % 1014,8 hPa 0,0 l/m 0 min 0 min 0,0 UV-I 0 W/m 0,0 km/h (0 Bft)
28.04.2013 23:04 8,9 C 6,8 C 78 % 1014,8 hPa 0,0 l/m 0 min 0 min 0,0 UV-I 0 W/m 0,0 km/h (0 Bft)
28.04.2013 23:06 8,9 C 6,8 C 78 % 1014,7 hPa 0,0 l/m 0 min 0 min 0,0 UV-I 0 W/m 0,0 km/h (0 Bft)
28.04.2013 23:08 8,8 C 6,8 C 78 % 1014,8 hPa 0,0 l/m 0 min 0 min 0,0 UV-I 0 W/m 0,0 km/h (0 Bft)
28.04.2013 23:10 8,8 C 6,8 C 78 % 1014,7 hPa 0,0 l/m 0 min 0 min 0,0 UV-I 0 W/m 0,0 km/h (0 Bft)
28.04.2013 23:12 8,8 C 6,2 C 79 % 1014,6 hPa 0,0 l/m 0 min 0 min 0,0 UV-I 0 W/m 0,0 km/h (0 Bft)
28.04.2013 23:14 8,7 C 6,8 C 79 % 1014,6 hPa 0,0 l/m 0 min 0 min 0,0 UV-I 0 W/m 5,1 km/h (1 Bft)
28.04.2013 23:16 8,7 C 6,8 C 79 % 1014,7 hPa 0,0 l/m 0 min 0 min 0,0 UV-I 0 W/m 0,0 km/h (0 Bft)
28.04.2013 23:18 8,7 C 6,8 C 79 % 1014,8 hPa 0,0 l/m 0 min 0 min 0,0 UV-I 0 W/m 2,6 km/h (1 Bft)
28.04.2013 23:20 8,6 C 6,8 C 79 % 1014,7 hPa 0,0 l/m 0 min 0 min 0,0 UV-I 0 W/m 0,0 km/h (0 Bft)
28.04.2013 23:22 8,6 C 6,8 C 79 % 1014,8 hPa 0,0 l/m 0 min 0 min 0,0 UV-I 0 W/m 0,0 km/h (0 Bft)
28.04.2013 23:24 8,6 C 6,8 C 80 % 1014,8 hPa 0,0 l/m 0 min 0 min 0,0 UV-I 0 W/m 12,9 km/h (3 Bft)
28.04.2013 23:26 8,5 C 6,8 C 80 % 1014,8 hPa 0,0 l/m 0 min 0 min 0,0 UV-I 0 W/m 5,1 km/h (1 Bft)
28.04.2013 23:28 8,4 C 6,8 C 80 % 1014,8 hPa 0,0 l/m 0 min 0 min 0,0 UV-I 0 W/m 0,0 km/h (0 Bft)
28.04.2013 23:30 8,4 C 6,8 C 80 % 1014,9 hPa 0,0 l/m 0 min 0 min 0,0 UV-I 0 W/m 0,0 km/h (0 Bft)
28.04.2013 23:32 8,4 C 6,8 C 80 % 1014,8 hPa 0,0 l/m 0 min 0 min 0,0 UV-I 0 W/m 0,0 km/h (0 Bft)
28.04.2013 23:34 8,4 C 6,8 C 81 % 1014,9 hPa 0,0 l/m 0 min 0 min 0,0 UV-I 0 W/m 2,6 km/h (1 Bft)
28.04.2013 23:36 8,3 C 6,8 C 80 % 1014,8 hPa 0,0 l/m 0 min 0 min 0,0 UV-I 0 W/m 0,0 km/h (0 Bft)
28.04.2013 23:38 8,3 C 6,8 C 81 % 1014,8 hPa 0,0 l/m 0 min 0 min 0,0 UV-I 0 W/m 0,0 km/h (0 Bft)
28.04.2013 23:40 8,3 C 6,8 C 81 % 1014,8 hPa 0,0 l/m 0 min 0 min 0,0 UV-I 0 W/m 2,6 km/h (1 Bft)
28.04.2013 23:42 8,3 C 6,8 C 81 % 1014,8 hPa 0,0 l/m 0 min 0 min 0,0 UV-I 0 W/m 0,0 km/h (0 Bft)
28.04.2013 23:44 8,2 C 6,8 C 81 % 1014,9 hPa 0,0 l/m 0 min 0 min 0,0 UV-I 0 W/m 2,6 km/h (1 Bft)
28.04.2013 23:46 8,2 C 6,8 C 81 % 1014,9 hPa 0,0 l/m 0 min 0 min 0,0 UV-I 0 W/m 0,0 km/h (0 Bft)
28.04.2013 23:48 8,2 C 6,2 C 81 % 1014,8 hPa 0,0 l/m 0 min 0 min 0,0 UV-I 0 W/m 0,0 km/h (0 Bft)
28.04.2013 23:50 8,2 C 6,2 C 81 % 1014,8 hPa 0,0 l/m 0 min 0 min 0,0 UV-I 0 W/m 0,0 km/h (0 Bft)
28.04.2013 23:52 8,2 C 6,2 C 81 % 1014,8 hPa 0,0 l/m 0 min 0 min 0,0 UV-I 0 W/m 0,0 km/h (0 Bft)
28.04.2013 23:54 8,1 C 6,2 C 81 % 1014,7 hPa 0,0 l/m 0 min 0 min 0,0 UV-I 0 W/m 0,0 km/h (0 Bft)
28.04.2013 23:56 8,1 C 6,2 C 81 % 1014,7 hPa 0,0 l/m 0 min 0 min 0,0 UV-I 0 W/m 0,0 km/h (0 Bft)
28.04.2013 23:58 8,1 C 6,2 C 81 % 1014,7 hPa 0,0 l/m 0 min 0 min 0,0 UV-I 0 W/m 0,0 km/h (0 Bft)
_ Min-Zeit 06:38 06:10 16:14 21:54 - - - - - 02:24
Minimum _ 0,8 C -1,0 C 38 % 1014,3 hPa - - - - - 0,0 km/h (0 Bft)
_ Max-Zeit 15:56 12:40 07:32 11:36 00:00 09:36 19:08 13:20 13:22 13:44
Maximum _ 14,1 C 20,1 C 96 % 1017,8 hPa 0,0 l/m 2 min 2 min 3,9 UV-I 979 W/m 20,6 km/h
O-SO (4 Bft)
Durchschnitt _ 8,0 C 8,1 C 71 % 1015,7 hPa #0,0 l/m #4:10 h #8 min. 1,8 UV-I 268 W/m 4,6 km/h (1 Bft)
© 2013 W. Hausmann